[{"header": {"dx": 0.06612293990616946, "dy": 0.0552356325346848, "nx": 98, "ny": 59, "la1": 35.046912555036876, "la2": 31.78801023549047, "lo1": -121.43107172385933, "lo2": -114.95102361305473, "refTime": "2026042201", "parameterCategory": 1, "parameterNumber": 2}, "data": [9.83, 9.37, 9.37, 9.32, 8.79, 8.79, 8.67, 8.64, 8.17, 7.69, 7.09, 6.6, 8.82, 8.72, 8.82, 8.55, 8.8, 8.43, 8.72, 8.37, 9.1, 9.1, 9.03, 9.03, 9.6, 9.27, 9.04, 9.0, 9.66, 9.66, 9.04, 8.38, 7.68, 7.68, 8.06, 8.72, 8.33, 8.05, 7.1, 6.21, 6.39, 7.4, 7.81, 8.49, 10.41, 10.29, 10.91, 10.58, 10.51, 10.43, 10.75, 11.47, 11.82, 12.22, 12.52, 12.89, 13.51, 13.51, 13.51, 13.87, 14.07, 14.39, 14.83, 15.24, 15.61, 16.27, 16.27, 15.35, 13.35, 12.27, 10.81, 10.75, 11.82, 12.49, 13.88, 15.47, 16.55, 16.65, 18.39, 18.35, 17.44, 15.78, 14.11, 12.86, 12.52, 12.07, 12.49, 11.52, 10.73, 9.24, 7.97, 7.24, 8.01, 8.76, 9.48, 9.48, 10.18, 10.9, 9.83, 9.39, 9.37, 8.87, 8.87, 8.79, 8.79, 8.64, 8.21, 7.74, 7.26, 8.82, 8.82, 8.14, 9.63, 9.2, 8.0, 9.2, 9.2, 8.05, 9.1, 9.1, 9.1, 9.1, 8.05, 8.06, 8.38, 9.0, 8.93, 8.93, 8.53, 7.36, 7.36, 7.59, 7.44, 6.7, 5.51, 4.22, 3.47, 3.45, 5.29, 7.27, 8.49, 7.97, 9.66, 10.63, 10.58, 10.18, 10.51, 10.43, 11.14, 11.87, 12.22, 12.05, 12.42, 12.89, 13.51, 13.89, 13.89, 14.07, 14.39, 14.39, 14.83, 15.1, 15.84, 15.41, 14.58, 12.86, 11.9, 11.82, 11.76, 11.82, 12.22, 12.89, 14.11, 15.43, 16.85, 16.65, 18.39, 18.35, 17.44, 15.78, 14.11, 12.86, 12.52, 12.07, 12.49, 11.52, 10.73, 9.24, 7.97, 7.24, 8.01, 8.76, 9.48, 9.48, 10.18, 10.9, 9.83, 9.39, 9.37, 8.92, 8.87, 8.87, 8.79, 8.77, 8.21, 7.74, 7.26, 7.09, 8.82, 8.82, 8.55, 8.55, 8.4, 8.55, 8.8, 9.6, 8.63, 9.1, 8.37, 8.49, 8.75, 8.03, 8.03, 8.03, 7.59, 7.48, 7.24, 7.25, 7.13, 7.96, 5.89, 4.74, 2.68, 2.6, 2.67, 3.32, 5.28, 6.88, 8.31, 9.0, 9.62, 10.28, 10.24, 10.24, 10.18, 10.86, 11.2, 12.26, 12.26, 11.9, 12.05, 12.89, 13.51, 13.89, 14.11, 14.07, 14.39, 14.39, 14.83, 15.1, 14.58, 13.64, 11.9, 11.47, 12.01, 12.78, 12.84, 12.89, 12.51, 12.86, 13.83, 15.49, 17.22, 17.64, 17.82, 17.91, 17.13, 15.78, 14.55, 12.87, 12.07, 12.05, 11.53, 10.25, 8.3, 7.27, 7.36, 7.73, 8.01, 8.76, 9.48, 10.24, 10.55, 11.28, 9.83, 9.39, 9.37, 9.37, 8.92, 8.87, 8.87, 8.77, 8.33, 7.87, 7.26, 7.26, 8.82, 8.82, 8.82, 8.55, 8.82, 8.72, 8.82, 8.95, 8.63, 8.54, 8.15, 8.03, 8.6, 9.76, 7.97, 7.02, 6.01, 4.96, 4.8, 5.48, 6.4, 8.16, 6.94, 4.96, 4.14, 3.6, 3.4, 3.45, 5.38, 7.27, 7.97, 8.65, 9.66, 9.62, 9.56, 10.24, 10.58, 11.25, 11.44, 12.27, 11.9, 11.9, 11.87, 12.89, 12.89, 13.51, 14.46, 14.07, 14.39, 14.39, 14.83, 14.3, 12.47, 11.25, 10.34, 11.64, 13.32, 14.31, 14.13, 13.1, 12.23, 12.13, 12.92, 15.35, 17.0, 18.78, 18.78, 17.59, 15.83, 15.47, 14.66, 13.39, 12.52, 11.6, 9.83, 7.35, 6.14, 6.45, 7.24, 7.73, 8.85, 9.56, 10.24, 10.91, 10.91, 11.28, 9.83, 9.39, 9.39, 9.37, 8.92, 8.87, 8.87, 8.86, 8.33, 7.87, 7.4, 6.79, 8.56, 8.56, 8.82, 8.82, 8.4, 8.4, 8.3, 8.0, 8.72, 8.37, 7.64, 8.0, 7.35, 8.22, 8.22, 7.27, 4.71, 2.67, 3.32, 4.07, 5.0, 6.33, 8.23, 6.94, 5.92, 6.3, 4.16, 3.4, 5.21, 7.27, 7.9, 8.6, 9.0, 8.93, 9.62, 10.24, 10.58, 11.25, 11.9, 11.28, 10.9, 11.2, 12.22, 12.87, 13.51, 13.51, 14.46, 14.07, 13.99, 13.99, 13.43, 11.9, 10.43, 10.54, 10.71, 11.92, 13.28, 15.39, 15.47, 14.51, 12.59, 12.39, 13.07, 14.03, 15.91, 17.36, 17.73, 17.3, 15.58, 14.73, 13.84, 12.96, 11.6, 9.83, 7.2, 5.64, 6.2, 6.97, 8.01, 8.85, 9.56, 9.96, 10.63, 10.91, 10.9, 11.26, 9.83, 9.39, 9.39, 9.37, 8.92, 8.92, 8.87, 8.42, 8.42, 7.87, 7.4, 6.97, 8.56, 8.56, 8.56, 8.56, 8.4, 8.56, 7.89, 7.42, 7.44, 7.35, 7.81, 7.27, 6.95, 6.3, 6.69, 5.98, 4.66, 3.7, 3.4, 3.55, 4.42, 5.89, 7.27, 7.44, 7.82, 7.27, 5.06, 2.47, 3.27, 5.92, 7.64, 8.85, 8.93, 8.53, 9.62, 10.28, 10.28, 10.91, 10.91, 10.58, 10.92, 11.2, 11.87, 13.51, 13.51, 13.87, 14.07, 14.07, 13.49, 12.86, 10.58, 9.11, 9.54, 11.25, 11.83, 11.92, 12.64, 15.39, 16.06, 16.11, 14.5, 14.49, 14.71, 15.13, 15.12, 15.63, 16.01, 16.47, 14.73, 13.41, 12.96, 12.07, 10.25, 7.42, 4.96, 5.41, 6.2, 7.36, 8.46, 9.89, 10.24, 10.28, 10.9, 10.9, 11.26, 10.66, 9.39, 9.39, 9.39, 9.39, 8.92, 8.92, 8.92, 8.42, 8.42, 7.97, 7.97, 7.4, 8.63, 8.33, 9.11, 7.71, 8.56, 8.3, 7.89, 7.2, 7.03, 6.79, 6.73, 6.95, 6.69, 6.3, 5.46, 5.72, 5.45, 5.46, 4.96, 3.72, 3.47, 5.06, 5.21, 6.88, 7.48, 9.08, 6.64, 2.6, 2.66, 4.66, 7.24, 7.96, 8.91, 9.17, 10.58, 11.28, 10.28, 10.04, 10.23, 10.24, 11.2, 11.9, 12.51, 13.25, 13.43, 13.43, 13.43, 13.83, 12.27, 9.56, 8.05, 7.82, 9.55, 11.91, 13.17, 12.01, 12.78, 14.47, 16.11, 16.12, 15.58, 16.06, 16.44, 16.76, 15.78, 14.67, 14.28, 14.73, 14.28, 12.96, 12.04, 11.15, 8.94, 6.35, 5.52, 6.57, 7.36, 7.82, 8.53, 9.84, 10.91, 10.9, 11.26, 10.87, 10.28, 9.67, 9.39, 9.39, 9.39, 9.39, 8.92, 8.92, 8.92, 8.47, 8.47, 7.98, 7.97, 7.51, 8.77, 8.29, 9.11, 7.71, 7.89, 8.3, 7.89, 7.35, 6.8, 6.07, 5.46, 5.82, 6.44, 6.87, 5.69, 4.71, 6.01, 6.95, 5.31, 2.26, 2.4, 4.46, 5.21, 6.01, 6.7, 8.06, 7.81, 5.03, 2.66, 3.8, 5.72, 7.9, 7.95, 10.36, 10.9, 11.28, 10.04, 9.3, 8.38, 9.96, 11.64, 12.27, 12.47, 12.79, 12.79, 12.39, 12.79, 11.83, 9.3, 6.45, 5.55, 7.08, 9.55, 12.77, 14.7, 13.85, 12.89, 14.46, 16.55, 16.85, 16.54, 16.33, 16.69, 16.3, 16.37, 14.67, 13.84, 13.86, 12.96, 12.96, 11.6, 9.81, 7.98, 6.92, 7.09, 7.36, 7.82, 8.53, 9.56, 10.19, 10.91, 11.28, 10.87, 10.63, 9.9, 9.67, 9.39, 9.39, 9.39, 9.39, 9.39, 8.92, 8.92, 8.92, 8.47, 8.03, 8.03, 7.13, 8.85, 8.29, 8.06, 8.06, 8.06, 7.89, 7.76, 7.2, 6.28, 6.52, 5.58, 5.6, 5.82, 7.2, 6.13, 5.06, 6.28, 7.07, 5.06, 2.49, 2.26, 4.71, 6.39, 6.82, 7.06, 6.52, 7.44, 6.01, 5.31, 4.96, 6.01, 7.27, 9.3, 9.3, 10.99, 11.35, 9.9, 9.23, 10.02, 9.66, 11.26, 11.83, 12.39, 12.15, 11.75, 11.2, 11.2, 9.43, 6.42, 4.75, 4.87, 7.2, 10.47, 13.17, 15.74, 15.12, 13.83, 14.17, 16.27, 16.6, 16.82, 15.63, 15.65, 15.65, 14.75, 14.3, 13.86, 12.96, 12.07, 11.62, 9.83, 8.67, 8.3, 8.49, 8.79, 8.85, 8.9, 9.21, 9.84, 10.19, 10.41, 10.9, 11.26, 10.28, 9.67, 9.04, 9.39, 9.39, 9.39, 9.39, 9.39, 8.94, 8.94, 8.94, 8.49, 8.49, 8.03, 7.6, 7.15, 7.13, 8.77, 8.29, 8.06, 8.06, 8.0, 7.6, 7.2, 7.2, 6.9, 6.52, 6.64, 6.8, 6.52, 6.23, 6.13, 7.2, 5.59, 4.43, 3.76, 5.37, 7.44, 8.22, 7.21, 5.2, 6.28, 7.21, 6.39, 6.73, 7.06, 7.81, 8.3, 9.65, 10.23, 10.29, 10.24, 10.51, 10.51, 10.9, 11.28, 11.26, 11.26, 11.2, 10.55, 8.95, 7.82, 5.49, 4.06, 4.76, 5.26, 7.0, 10.21, 13.28, 16.37, 16.34, 14.11, 13.65, 14.73, 15.18, 14.75, 13.86, 13.78, 13.69, 13.65, 13.18, 12.33, 11.15, 9.28, 8.24, 8.67, 8.93, 10.12, 10.37, 10.43, 9.83, 9.53, 9.2, 9.84, 10.19, 10.66, 10.66, 10.87, 10.28, 9.67, 9.04, 9.39, 9.39, 9.39, 9.39, 9.39, 9.39, 8.94, 8.94, 8.49, 8.49, 8.05, 8.05, 7.6, 7.15, 8.45, 8.01, 8.29, 6.36, 6.79, 6.3, 7.63, 7.53, 7.12, 7.12, 7.63, 7.63, 7.63, 7.21, 7.21, 8.06, 8.06, 6.16, 5.6, 6.16, 7.21, 9.11, 8.63, 8.0, 7.42, 8.43, 8.05, 7.67, 7.82, 8.15, 8.8, 8.95, 9.2, 8.68, 8.93, 9.56, 10.34, 11.29, 11.29, 10.25, 9.6, 9.7, 8.95, 6.11, 1.13, -0.0, 3.13, 5.65, 6.42, 7.2, 9.67, 13.41, 17.31, 17.71, 14.7, 11.05, 9.24, 10.18, 11.18, 11.09, 11.28, 11.95, 11.3, 10.68, 9.24, 8.33, 7.95, 8.85, 10.07, 10.37, 11.34, 11.64, 11.7, 10.75, 10.12, 10.18, 9.84, 10.29, 10.28, 10.63, 10.8, 10.63, 9.67, 9.04, 9.37, 9.39, 9.39, 9.39, 9.39, 9.39, 8.94, 8.94, 8.49, 8.49, 8.05, 8.05, 7.6, 7.6, 7.15, 6.68, 6.61, 6.04, 6.04, 6.04, 5.7, 5.7, 5.7, 8.41, 7.97, 8.41, 8.17, 6.04, 7.85, 8.85, 8.6, 7.85, 7.37, 7.42, 8.45, 8.8, 9.11, 9.24, 8.55, 8.95, 8.95, 8.0, 7.6, 8.22, 8.22, 7.42, 6.95, 6.98, 6.97, 6.94, 7.13, 8.86, 9.54, 8.75, 7.33, 8.02, 10.56, 7.01, -0.98, -4.2, -0.0, 5.69, 7.22, 7.4, 8.12, 11.52, 16.23, 18.9, 16.72, 11.29, 4.66, 2.68, 6.55, 9.24, 9.24, 8.55, 7.35, 6.71, 6.94, 7.96, 8.76, 10.43, 10.75, 11.29, 11.29, 12.28, 12.67, 12.04, 11.41, 11.44, 11.37, 11.04, 10.94, 10.68, 10.55, 10.23, 9.3, 9.3, 9.37, 9.37, 9.37, 9.39, 9.39, 9.39, 8.94, 8.94, 8.94, 8.49, 8.49, 8.05, 8.05, 7.6, 7.13, 6.68, 6.61, 6.16, 6.16, 5.72, 5.7, 5.7, 5.7, 4.89, 4.44, 4.44, 5.24, 6.16, 6.61, 7.58, 9.35, 9.35, 8.9, 8.9, 8.9, 8.9, 8.82, 9.06, 8.63, 8.63, 8.4, 8.3, 7.89, 6.94, 6.8, 5.59, 4.44, 5.69, 5.92, 5.64, 5.99, 6.57, 5.25, 4.29, 5.55, 8.0, 12.39, 14.93, 5.64, -3.36, -2.41, 4.1, 7.27, 6.35, 5.61, 8.02, 12.64, 15.87, 16.74, 18.62, 11.91, 2.21, 0.0, 5.2, 6.02, 4.92, 4.8, 6.73, 8.53, 10.48, 10.46, 11.2, 11.45, 11.87, 11.7, 12.72, 13.46, 12.7, 12.43, 12.39, 11.85, 11.47, 10.79, 10.43, 10.15, 9.65, 9.3, 9.65, 9.37, 9.37, 9.37, 9.37, 9.37, 9.39, 8.94, 8.94, 8.94, 8.49, 8.49, 8.05, 8.05, 7.6, 7.13, 6.68, 6.16, 6.16, 6.16, 6.23, 6.23, 6.23, 6.23, 5.34, 4.88, 4.44, 4.89, 5.79, 7.13, 7.6, 8.05, 9.39, 10.28, 8.49, 8.94, 8.9, 8.46, 8.33, 7.89, 8.14, 8.14, 7.63, 7.74, 7.2, 6.13, 4.75, 4.03, 4.44, 4.66, 5.45, 5.69, 4.6, 3.45, 2.13, 4.36, 6.62, 11.3, 17.1, 14.86, 0.8, -3.07, 1.15, 5.62, 5.78, 4.71, 5.61, 7.39, 9.8, 13.89, 18.61, 22.76, 12.09, -1.2, -1.98, 2.23, 4.96, 7.24, 9.7, 11.76, 13.18, 12.52, 12.51, 12.33, 12.25, 11.45, 13.51, 14.46, 13.43, 12.79, 12.66, 11.99, 10.79, 10.27, 10.43, 9.05, 9.65, 9.65, 9.65, 9.37, 9.37, 9.37, 9.37, 9.37, 9.37, 8.92, 8.92, 8.92, 8.47, 8.49, 8.49, 8.05, 7.58, 7.13, 6.68, 6.16, 6.16, 6.16, 6.23, 6.68, 6.68, 6.68, 6.23, 5.34, 4.92, 5.36, 5.81, 7.15, 7.58, 7.97, 7.87, 10.04, 9.32, 8.94, 8.94, 8.87, 7.42, 8.6, 7.42, 7.85, 8.6, 7.97, 7.21, 6.52, 5.37, 3.91, 3.91, 4.75, 5.03, 5.72, 4.71, 3.91, 2.8, 5.01, 6.8, 9.2, 12.39, 13.22, 5.78, -0.0, 1.16, 3.47, 4.58, 4.52, 4.52, 6.56, 9.17, 12.33, 15.11, 20.94, 22.38, 7.12, -4.02, -0.0, 7.23, 11.19, 12.39, 13.8, 15.13, 15.09, 14.3, 12.92, 12.22, 11.52, 13.23, 13.64, 13.23, 11.99, 12.04, 11.37, 9.86, 9.74, 9.45, 9.65, 9.6, 9.27, 9.27, 9.32, 9.32, 9.37, 9.37, 9.37, 9.37, 8.92, 8.92, 8.92, 8.92, 8.49, 8.49, 8.05, 7.58, 7.13, 6.61, 6.16, 6.16, 6.68, 6.68, 6.68, 7.13, 7.13, 6.68, 6.24, 6.26, 6.26, 6.68, 7.51, 7.87, 8.21, 8.21, 7.26, 9.32, 8.94, 7.56, 7.89, 7.85, 8.17, 7.97, 7.42, 7.42, 7.63, 6.52, 5.93, 5.06, 3.68, 4.47, 5.06, 4.74, 5.93, 6.28, 6.28, 6.13, 6.23, 6.61, 6.8, 8.15, 8.2, 6.2, 3.19, 3.25, 4.4, 5.45, 5.1, 5.69, 6.57, 9.17, 11.3, 14.33, 19.69, 26.34, 16.96, 2.64, 1.6, 8.62, 13.91, 15.44, 15.5, 16.69, 17.03, 15.35, 13.07, 11.66, 10.89, 10.45, 12.58, 11.87, 11.45, 11.37, 10.55, 9.05, 9.7, 10.09, 10.0, 9.34, 8.93, 8.93, 9.32, 9.32, 9.32, 9.32, 9.37, 9.37, 8.92, 8.92, 8.92, 8.92, 8.49, 8.05, 7.6, 7.13, 7.06, 6.61, 6.61, 6.68, 6.68, 6.68, 7.13, 7.13, 7.13, 7.13, 7.15, 7.15, 7.07, 7.87, 7.74, 8.0, 8.0, 7.51, 6.51, 8.6, 7.15, 7.15, 7.55, 7.97, 7.5, 7.5, 7.5, 6.28, 7.2, 5.58, 5.93, 5.06, 5.06, 5.37, 5.93, 6.13, 6.64, 7.21, 7.2, 7.21, 7.21, 7.74, 7.07, 8.0, 7.59, 7.95, 7.65, 6.3, 6.01, 6.01, 7.07, 6.44, 6.87, 7.64, 10.23, 15.23, 22.36, 25.8, 18.88, 7.73, 5.45, 10.47, 15.95, 18.08, 17.73, 17.08, 17.27, 16.55, 13.75, 11.21, 9.9, 9.24, 10.45, 10.43, 10.55, 10.55, 10.0, 9.45, 10.0, 10.4, 10.15, 8.88, 8.58, 8.58, 9.32, 9.32, 9.32, 9.32, 9.32, 9.32, 8.92, 8.92, 8.92, 8.92, 8.49, 8.05, 7.6, 7.13, 7.07, 7.06, 6.61, 6.61, 6.61, 7.07, 7.13, 7.58, 7.58, 7.58, 7.6, 7.13, 6.51, 6.94, 7.21, 6.6, 6.3, 5.4, 5.09, 4.8, 5.36, 7.15, 7.15, 7.94, 7.5, 7.06, 7.01, 6.64, 6.13, 6.13, 6.52, 5.93, 5.93, 5.93, 6.52, 6.8, 7.21, 7.21, 6.64, 7.06, 7.5, 7.63, 7.81, 8.15, 8.0, 7.81, 8.15, 7.47, 7.21, 7.44, 7.6, 6.8, 6.7, 7.94, 9.54, 15.02, 23.59, 26.94, 20.44, 11.87, 9.6, 12.78, 16.73, 19.33, 19.31, 18.05, 17.19, 16.95, 14.95, 10.4, 9.6, 9.36, 9.49, 9.9, 10.15, 10.63, 10.28, 10.23, 9.45, 10.0, 9.65, 8.68, 8.24, 8.24, 9.32, 9.32, 9.32, 9.32, 9.32, 8.87, 8.92, 8.92, 8.92, 8.49, 8.05, 8.05, 7.6, 7.13, 7.13, 8.9, 6.61, 6.61, 7.07, 7.52, 8.03, 7.15, 7.15, 9.39, 9.39, 9.39, 5.36, 7.6, 8.05, 5.81, 5.81, 5.36, 5.36, 5.81, 6.26, 6.71, 7.15, 7.58, 8.01, 8.41, 7.42, 7.37, 7.63, 7.2, 7.2, 7.2, 6.8, 6.8, 7.21, 7.63, 7.63, 7.63, 7.21, 6.79, 7.63, 7.81, 7.6, 7.21, 7.81, 8.15, 8.37, 8.37, 8.0, 7.42, 7.35, 7.63, 7.89, 8.94, 10.7, 14.71, 21.01, 26.04, 24.34, 17.35, 13.83, 14.58, 16.33, 18.6, 20.01, 20.01, 17.25, 15.35, 12.56, 10.79, 10.55, 10.43, 10.43, 10.52, 10.15, 10.4, 11.2, 10.8, 10.15, 9.45, 9.67, 9.27, 8.53, 8.53, 9.32, 9.32, 9.32, 9.32, 8.87, 8.87, 8.87, 8.92, 8.92, 8.49, 8.05, 7.6, 7.6, 7.13, 7.13, 7.13, 7.06, 7.06, 8.8, 9.35, 9.36, 7.13, 6.68, 8.9, 9.24, 8.8, 8.56, 7.26, 8.0, 8.0, 8.17, 7.87, 7.97, 7.58, 7.58, 8.03, 8.03, 8.03, 8.03, 8.03, 7.97, 7.87, 7.87, 7.26, 6.79, 8.17, 7.21, 7.21, 7.21, 7.63, 7.63, 7.63, 7.21, 7.63, 6.8, 7.03, 7.64, 6.35, 7.44, 8.37, 8.54, 8.15, 8.15, 8.15, 7.76, 7.76, 8.63, 10.16, 12.52, 15.65, 20.1, 25.57, 25.25, 20.63, 17.86, 16.47, 16.69, 17.13, 19.67, 19.61, 18.17, 15.47, 12.74, 11.36, 11.18, 10.6, 10.6, 11.03, 10.6, 10.38, 11.09, 11.09, 10.15, 9.27, 9.57, 10.24, 10.24, 10.24, 9.32, 9.32, 9.32, 9.32, 8.87, 8.87, 8.87, 8.92, 8.92, 8.49, 8.05, 7.6, 7.6, 7.13, 7.13, 7.13, 7.13, 7.13, 7.58, 9.36, 9.8, 7.52, 7.4, 7.87, 8.3, 8.21, 8.48, 8.91, 8.96, 9.43, 9.57, 9.68, 9.23, 8.87, 8.92, 8.47, 8.47, 8.47, 8.03, 8.03, 8.03, 7.97, 7.97, 7.4, 6.94, 8.17, 7.5, 7.5, 7.5, 7.94, 7.94, 7.5, 7.21, 6.8, 7.07, 6.44, 7.44, 6.7, 7.76, 8.22, 7.76, 7.76, 8.22, 8.22, 7.76, 7.89, 8.82, 10.25, 12.37, 15.13, 18.39, 23.41, 24.77, 19.22, 15.84, 15.35, 15.14, 15.99, 17.25, 18.26, 18.31, 15.91, 13.21, 10.8, 11.18, 11.18, 11.18, 11.03, 11.03, 10.18, 10.68, 10.85, 10.23, 9.56, 10.19, 10.82, 10.82, 10.82, 9.23, 9.32, 9.32, 9.32, 8.87, 8.87, 8.87, 8.86, 8.47, 8.47, 8.05, 7.6, 7.15, 7.15, 7.58, 7.58, 7.58, 7.58, 8.05, 8.47, 8.47, 8.42, 8.77, 8.79, 8.79, 8.79, 8.79, 9.23, 9.23, 9.24, 9.77, 9.32, 9.32, 8.92, 8.92, 8.49, 8.05, 8.05, 8.05, 7.58, 7.58, 7.58, 7.13, 7.06, 6.6, 6.16, 7.94, 7.6, 7.6, 7.6, 7.5, 7.5, 7.21, 6.8, 6.28, 7.44, 7.44, 7.44, 7.2, 6.52, 6.4, 7.35, 7.35, 7.35, 7.35, 7.42, 8.4, 9.36, 10.63, 12.82, 13.76, 19.89, 24.66, 14.44, 4.34, 7.27, 9.57, 11.16, 12.25, 14.03, 15.65, 15.37, 14.21, 12.37, 11.87, 11.45, 11.18, 11.18, 10.8, 10.32, 9.83, 9.86, 10.15, 10.45, 10.82, 11.44, 11.9, 11.9, 9.23, 9.23, 9.23, 9.32, 8.87, 8.87, 8.87, 8.42, 8.47, 8.03, 7.6, 7.6, 7.6, 7.6, 7.6, 7.6, 8.05, 8.05, 8.05, 8.47, 8.47, 8.47, 8.86, 8.87, 8.87, 8.87, 8.87, 8.87, 8.92, 9.37, 9.37, 9.37, 8.92, 8.94, 8.49, 8.05, 8.05, 8.05, 7.6, 7.6, 7.15, 7.13, 6.68, 6.68, 6.16, 5.7, 7.6, 7.6, 7.6, 7.6, 7.5, 7.5, 7.21, 7.2, 6.28, 7.07, 6.73, 7.02, 7.07, 5.2, 5.09, 6.16, 6.8, 6.8, 6.82, 7.42, 8.4, 8.4, 9.03, 9.3, 10.94, 13.95, 19.25, 2.53, -5.2, 2.54, 5.75, 7.71, 9.15, 10.63, 12.94, 14.4, 14.64, 14.21, 13.29, 13.01, 12.09, 11.84, 11.18, 10.68, 9.18, 9.45, 10.41, 11.09, 11.44, 12.01, 11.94, 11.94, 9.23, 9.23, 9.23, 9.23, 8.87, 8.87, 8.86, 8.47, 8.47, 8.05, 8.05, 7.6, 7.6, 7.6, 8.05, 8.05, 8.05, 8.05, 8.49, 8.47, 8.47, 8.47, 8.47, 8.47, 8.92, 8.92, 8.92, 8.92, 8.92, 8.92, 8.92, 8.92, 8.94, 8.49, 8.49, 8.05, 8.05, 8.05, 7.6, 7.15, 6.71, 6.71, 6.68, 6.23, 5.78, 5.81, 8.05, 7.6, 7.6, 7.6, 7.94, 7.63, 7.63, 7.2, 6.52, 6.28, 5.37, 6.64, 7.21, 5.75, 3.6, 4.0, 5.58, 6.11, 6.44, 7.07, 7.44, 9.2, 8.05, 8.43, 9.6, 22.99, 28.9, 14.92, 6.52, 8.6, 10.47, 11.18, 11.62, 11.18, 12.96, 14.29, 15.13, 14.69, 14.67, 13.83, 12.94, 11.96, 11.61, 11.09, 9.6, 9.78, 10.81, 12.01, 12.33, 12.33, 12.25, 12.25, 9.23, 9.23, 9.23, 9.23, 9.23, 8.87, 8.86, 8.47, 8.47, 8.05, 8.05, 8.05, 8.05, 8.05, 8.05, 8.05, 8.05, 8.05, 8.49, 8.49, 8.47, 8.47, 8.47, 8.47, 8.47, 8.47, 8.92, 8.92, 8.92, 8.92, 8.92, 8.92, 8.94, 8.49, 8.49, 8.49, 8.05, 8.05, 7.6, 7.15, 6.71, 6.26, 6.26, 6.26, 5.81, 5.81, 6.68, 7.15, 7.6, 7.6, 7.58, 8.87, 8.17, 7.63, 6.8, 5.93, 5.93, 5.06, 6.52, 6.28, 3.79, 2.84, 4.54, 6.18, 6.44, 7.07, 7.44, 8.05, 8.43, 10.02, 12.96, 17.88, 26.21, 23.96, 17.79, 14.92, 15.5, 15.18, 14.86, 12.58, 13.56, 14.6, 15.05, 15.13, 15.18, 13.86, 12.96, 11.52, 10.95, 10.79, 12.16, 10.79, 11.75, 12.47, 12.25, 12.54, 12.13, 12.13, 9.23, 9.23, 9.23, 9.23, 9.23, 8.87, 8.87, 8.47, 8.47, 8.05, 8.05, 8.05, 8.05, 8.05, 8.05, 8.05, 8.05, 8.49, 8.49, 8.49, 8.47, 8.47, 8.47, 8.47, 8.47, 8.47, 8.92, 8.92, 8.92, 8.92, 8.92, 8.92, 8.49, 8.49, 8.49, 8.05, 8.05, 7.6, 7.6, 6.71, 6.71, 6.26, 6.26, 6.26, 6.26, 6.26, 6.68, 7.13, 7.58, 8.05, 8.05, 8.05, 9.39, 8.41, 7.2, 5.93, 5.06, 5.36, 5.93, 5.69, 5.93, 5.72, 4.54, 5.58, 6.18, 6.44, 6.73, 7.41, 9.2, 10.93, 12.49, 15.61, 19.26, 23.83, 22.07, 19.69, 19.19, 16.54, 12.56, 10.66, 11.88, 13.19, 14.11, 14.56, 14.03, 13.83, 12.04, 10.68, 10.28, 10.81, 12.52, 12.39, 11.94, 12.13, 12.13, 12.7, 12.66, 12.66, 9.23, 9.23, 9.23, 9.23, 8.79, 8.87, 8.87, 8.86, 8.47, 8.47, 8.05, 8.05, 8.05, 8.05, 8.05, 8.05, 8.05, 8.49, 8.49, 8.49, 8.47, 8.47, 8.47, 8.47, 8.47, 8.47, 8.47, 8.92, 8.92, 8.92, 8.92, 8.49, 8.49, 8.05, 8.05, 7.6, 7.6, 7.15, 7.15, 6.71, 6.71, 6.26, 6.26, 6.26, 6.26, 6.68, 7.13, 7.51, 7.51, 7.97, 8.03, 8.47, 8.05, 7.13, 7.21, 5.82, 5.93, 5.36, 4.11, 5.15, 7.07, 6.44, 6.52, 5.21, 6.28, 5.77, 6.39, 8.05, 9.49, 11.18, 12.42, 14.28, 16.37, 18.58, 19.09, 20.71, 23.99, 19.01, 9.8, 4.12, 5.9, 8.93, 10.73, 11.3, 10.98, 11.15, 10.95, 10.29, 10.91, 11.53, 12.33, 13.74, 13.35, 12.29, 12.13, 13.07, 13.6, 13.6, 9.23, 9.23, 9.23, 9.23, 8.79, 8.87, 8.87, 8.86, 8.47, 8.47, 8.05, 8.05, 8.05, 7.6, 7.6, 8.05, 8.05, 8.49, 8.49, 8.49, 8.03, 8.03, 8.47, 8.47, 8.47, 8.47, 8.49, 8.49, 8.49, 8.49, 8.49, 8.49, 8.05, 8.05, 8.05, 7.6, 7.6, 7.15, 7.15, 6.71, 6.71, 6.26, 6.26, 6.26, 6.71, 7.13, 7.51, 7.51, 7.87, 7.87, 7.87, 8.42, 8.03, 7.15, 6.3, 5.82, 5.06, 4.74, 4.11, 4.81, 6.44, 7.03, 6.4, 5.15, 5.06, 6.01, 7.44, 8.3, 9.54, 11.36, 13.32, 14.73, 14.75, 14.28, 15.31, 18.17, 22.99, 23.72, 14.83, 5.75, 2.47, 2.6, 3.7, 7.15, 8.67, 10.0, 10.79, 11.9, 11.9, 12.79, 12.7, 13.64, 13.89, 12.66, 13.07, 13.84, 14.35, 14.35, 9.23, 9.23, 9.23, 8.79, 8.79, 8.87, 8.86, 8.42, 8.47, 8.47, 8.03, 8.05, 8.05, 7.6, 7.6, 8.05, 8.05, 8.49, 8.49, 8.05, 8.03, 8.03, 8.47, 8.47, 8.47, 8.49, 8.49, 8.49, 8.47, 8.49, 8.49, 8.05, 8.05, 8.05, 7.6, 7.6, 7.15, 7.15, 6.71, 6.71, 6.71, 6.26, 6.26, 7.6, 7.6, 6.71, 7.07, 7.4, 7.26, 7.74, 7.87, 7.87, 7.58, 6.68, 5.88, 5.08, 5.06, 4.74, 3.63, 4.11, 5.82, 6.8, 6.21, 5.49, 5.77, 6.79, 7.67, 8.56, 8.9, 10.28, 13.39, 15.65, 15.18, 13.92, 14.42, 17.44, 19.16, 19.86, 21.28, 16.96, 8.94, 2.91, 3.09, 4.29, 8.94, 10.41, 11.37, 12.47, 13.35, 13.64, 13.91, 14.42, 14.35, 13.84, 13.92, 14.84, 15.04, 15.04, 9.11, 9.11, 8.79, 8.79, 8.79, 8.86, 8.86, 8.42, 8.47, 8.47, 8.47, 8.05, 8.05, 7.6, 7.6, 8.05, 8.05, 8.05, 8.05, 8.05, 8.05, 8.03, 8.03, 8.03, 8.05, 8.49, 8.49, 8.03, 8.03, 8.05, 8.05, 8.05, 8.05, 8.05, 7.6, 7.6, 7.15, 7.15, 6.71, 6.71, 6.71, 6.71, 6.23, 6.23, 6.68, 8.05, 8.45, 6.51, 6.51, 7.06, 7.15, 7.13, 7.13, 6.94, 6.3, 5.08, 4.0, 3.16, 3.35, 4.19, 5.75, 6.28, 5.82, 5.15, 6.18, 6.82, 7.67, 9.21, 8.05, 8.8, 11.15, 14.75, 17.42, 16.01, 14.3, 15.35, 16.33, 16.47, 19.07, 22.99, 18.96, 8.03, 5.09, 5.75, 7.52, 11.69, 12.25, 13.07, 13.92, 14.61, 14.61, 15.13, 15.69, 15.35, 15.04, 15.69, 15.69, 15.69, 9.11, 9.11, 8.79, 8.79, 8.77, 8.86, 8.42, 8.42, 8.47, 8.47, 8.47, 8.03, 8.05, 8.05, 8.05, 8.05, 8.05, 8.05, 8.05, 8.05, 8.05, 8.05, 8.05, 8.05, 8.05, 8.05, 8.05, 8.03, 8.03, 8.05, 8.05, 8.05, 8.05, 7.6, 7.6, 7.15, 7.15, 6.71, 6.71, 6.71, 6.68, 6.68, 6.68, 6.61, 6.61, 8.01, 8.45, 6.68, 6.71, 6.71, 7.13, 7.51, 7.87, 7.26, 6.79, 5.81, 4.55, 3.78, 3.16, 4.6, 5.2, 5.6, 5.58, 6.21, 6.4, 6.7, 7.21, 8.79, 9.11, 8.94, 8.33, 11.62, 16.82, 19.07, 15.78, 13.19, 12.98, 13.05, 15.12, 20.1, 21.7, 17.51, 9.86, 8.3, 9.01, 9.71, 10.71, 13.42, 14.13, 15.22, 15.39, 15.5, 15.95, 15.96, 15.83, 15.83, 15.83, 15.83, 8.67, 8.67, 8.79, 8.77, 8.77, 8.42, 8.42, 8.42, 8.42, 8.47, 8.47, 8.03, 8.05, 8.05, 8.05, 8.05, 8.05, 8.05, 7.6, 7.6, 7.6, 8.05, 8.05, 8.05, 8.05, 8.05, 8.05, 7.58, 8.94, 7.6, 7.6, 7.6, 7.6, 7.6, 7.15, 6.71, 6.71, 6.71, 6.71, 6.26, 6.23, 6.68, 6.68, 6.61, 7.06, 7.4, 7.51, 7.6, 7.15, 7.58, 7.97, 7.97, 8.41, 7.97, 7.07, 5.88, 5.08, 4.0, 3.43, 3.72, 4.6, 5.2, 5.75, 5.86, 6.94, 6.65, 6.71, 8.49, 9.77, 10.22, 8.49, 9.39, 13.81, 19.84, 19.21, 13.49, 9.9, 11.06, 13.32, 16.52, 18.72, 17.35, 15.27, 11.39, 10.91, 10.97, 11.87, 12.04, 15.31, 15.05, 15.58, 15.63, 15.65, 16.08, 16.03, 16.03, 16.03, 16.03, 8.64, 8.64, 8.77, 8.77, 8.77, 8.42, 8.42, 8.42, 8.42, 8.47, 8.47, 8.03, 8.05, 8.05, 8.05, 8.05, 8.05, 7.6, 7.6, 7.6, 7.6, 7.6, 8.05, 8.05, 8.05, 8.05, 7.6, 7.58, 7.6, 8.94, 7.6, 7.6, 7.13, 7.13, 6.61, 6.61, 6.68, 6.23, 6.26, 6.26, 6.26, 6.68, 6.68, 6.61, 7.06, 7.51, 7.51, 7.58, 7.6, 8.05, 8.05, 8.47, 8.03, 7.58, 7.06, 6.04, 5.31, 4.55, 3.43, 3.72, 3.72, 5.2, 6.23, 6.02, 6.51, 7.11, 7.15, 7.55, 9.83, 10.66, 10.16, 10.25, 12.52, 18.33, 23.68, 17.43, 10.7, 10.73, 13.41, 15.65, 16.48, 16.6, 16.44, 15.96, 12.51, 12.21, 12.75, 12.85, 16.07, 15.65, 15.65, 15.2, 15.18, 15.63, 16.08, 16.54, 15.65, 15.65, 8.77, 8.77, 8.77, 8.77, 8.42, 8.42, 8.42, 8.42, 8.42, 8.47, 8.03, 8.03, 8.05, 8.05, 8.05, 8.05, 7.6, 7.6, 7.6, 7.6, 7.6, 7.6, 7.6, 8.05, 8.05, 7.6, 7.6, 7.15, 7.6, 7.6, 7.58, 7.58, 7.07, 7.06, 6.61, 6.6, 6.23, 6.23, 6.23, 6.26, 6.26, 6.71, 6.68, 7.13, 7.13, 7.51, 7.51, 7.58, 7.58, 8.05, 8.05, 8.05, 8.05, 7.58, 6.61, 6.04, 5.81, 4.55, 4.0, 3.72, 5.6, 5.6, 5.81, 6.23, 6.02, 7.1, 7.6, 8.05, 9.39, 10.28, 10.6, 11.57, 12.96, 16.47, 21.46, 19.86, 14.57, 13.39, 15.2, 16.54, 16.54, 16.52, 16.48, 16.4, 15.96, 12.92, 12.95, 13.41, 16.09, 16.07, 15.57, 15.12, 15.05, 15.49, 15.5, 16.08, 16.08, 16.08, 8.77, 8.77, 8.77, 8.33, 8.42, 8.42, 8.42, 8.42, 8.47, 8.47, 8.03, 8.03, 8.03, 8.03, 8.03, 7.6, 7.6, 7.6, 7.6, 7.6, 7.6, 7.6, 7.6, 8.05, 7.6, 7.6, 7.15, 7.15, 7.15, 7.13, 7.13, 7.13, 7.13, 7.13, 6.68, 6.23, 6.23, 5.81, 6.26, 6.26, 6.71, 6.71, 7.13, 7.13, 7.13, 7.58, 7.51, 7.52, 7.52, 8.03, 8.03, 8.05, 7.6, 7.13, 6.61, 6.47, 5.81, 4.55, 4.0, 3.6, 3.6, 5.6, 5.6, 6.58, 7.06, 7.5, 7.55, 8.49, 9.39, 10.25, 10.63, 12.31, 13.86, 15.65, 17.88, 18.06, 16.96, 16.37, 16.99, 17.42, 16.03, 15.18, 15.18, 15.2, 15.2, 12.52, 12.52, 16.07, 16.02, 15.49, 15.47, 14.9, 14.87, 14.79, 15.04, 15.22, 15.95, 15.95, 8.77, 8.77, 8.77, 8.33, 8.42, 8.42, 8.42, 8.42, 8.47, 8.47, 8.03, 8.03, 8.03, 8.03, 8.03, 8.03, 7.6, 7.6, 7.6, 7.6, 7.6, 7.6, 7.6, 7.6, 7.6, 7.6, 7.15, 6.71, 6.71, 6.71, 6.71, 7.15, 7.15, 6.71, 6.26, 6.26, 5.81, 5.81, 5.81, 6.26, 6.23, 6.68, 7.13, 7.13, 7.07, 7.51, 7.51, 7.97, 7.97, 7.97, 8.03, 7.6, 7.6, 7.07, 6.94, 6.3, 5.6, 5.08, 4.4, 4.11, 3.7, 3.87, 6.14, 5.75, 6.65, 7.97, 7.55, 8.46, 9.39, 9.8, 11.57, 11.96, 15.49, 16.47, 16.52, 15.57, 16.69, 18.06, 19.21, 17.43, 15.18, 13.34, 12.88, 13.34, 13.78, 14.23, 15.12, 15.03, 15.03, 15.03, 14.9, 14.27, 14.21, 14.42, 14.13, 14.35, 15.22, 15.22, 8.77, 8.77, 8.33, 8.33, 8.42, 8.42, 8.42, 8.42, 8.47, 8.47, 8.47, 8.03, 8.03, 8.03, 8.03, 7.58, 7.6, 7.6, 7.6, 7.6, 7.6, 7.6, 7.6, 7.6, 7.6, 7.15, 6.71, 6.26, 6.26, 6.26, 6.71, 6.71, 6.71, 6.71, 6.26, 5.81, 5.81, 5.81, 5.81, 5.78, 6.23, 6.68, 6.68, 8.01, 7.06, 7.4, 7.4, 7.87, 7.87, 7.97, 7.58, 7.15, 7.06, 6.94, 6.79, 6.79, 6.3, 5.08, 4.27, 4.11, 4.3, 3.87, 6.14, 5.75, 6.65, 8.05, 7.6, 8.49, 8.94, 9.39, 10.25, 11.52, 14.81, 17.57, 16.01, 13.86, 14.3, 17.86, 19.65, 17.87, 14.69, 12.94, 12.07, 11.99, 12.43, 12.88, 13.79, 13.78, 14.13, 14.57, 14.44, 14.0, 13.78, 13.78, 13.49, 13.42, 14.35, 15.04, 8.33, 8.33, 8.33, 8.33, 8.33, 8.42, 8.42, 8.42, 8.42, 8.47, 8.47, 8.42, 7.97, 7.97, 8.03, 7.58, 7.6, 7.15, 7.15, 7.6, 7.6, 7.6, 7.6, 7.6, 7.6, 7.15, 6.71, 6.26, 6.26, 6.26, 6.26, 6.26, 6.26, 6.26, 5.81, 5.81, 5.81, 5.81, 5.78, 5.78, 6.16, 6.6, 6.6, 8.0, 7.13, 7.51, 7.4, 7.84, 7.87, 7.58, 7.15, 7.06, 6.94, 6.94, 7.21, 6.79, 6.3, 5.81, 4.4, 4.6, 4.34, 4.3, 6.14, 5.75, 6.65, 8.05, 8.49, 8.05, 8.94, 9.39, 9.39, 10.66, 13.67, 17.44, 18.78, 14.73, 12.86, 16.01, 17.43, 16.08, 14.15, 13.69, 12.94, 12.07, 11.62, 12.5, 13.39, 13.84, 14.23, 14.23, 14.13, 14.13, 13.96, 13.96, 13.72, 13.4, 14.07, 14.35, 8.33, 8.33, 8.33, 8.33, 8.33, 8.42, 8.42, 8.42, 8.42, 8.42, 8.42, 8.42, 7.97, 7.97, 7.58, 7.58, 7.15, 7.15, 7.15, 7.15, 7.6, 7.6, 7.6, 7.6, 8.03, 7.58, 6.68, 6.23, 6.23, 6.23, 6.23, 6.23, 6.26, 5.81, 5.81, 5.81, 5.81, 5.78, 5.78, 5.7, 5.7, 6.16, 6.16, 6.16, 7.89, 7.51, 7.4, 7.4, 7.13, 7.15, 7.06, 6.94, 6.79, 6.94, 6.94, 6.94, 6.3, 4.9, 4.4, 4.6, 4.34, 4.34, 4.44, 6.71, 7.15, 7.6, 7.15, 8.05, 8.49, 8.94, 8.9, 9.36, 12.47, 15.74, 18.42, 16.03, 13.83, 13.32, 13.39, 12.52, 12.43, 13.33, 13.34, 12.94, 12.52, 13.41, 14.3, 14.73, 14.73, 15.12, 15.12, 14.57, 14.57, 14.4, 13.96, 13.96, 13.83, 14.07, 8.33, 8.33, 8.33, 8.33, 8.33, 8.42, 8.42, 8.42, 8.42, 8.42, 8.42, 8.41, 7.97, 7.97, 7.58, 7.6, 7.15, 7.15, 7.15, 7.15, 7.6, 7.6, 7.6, 7.6, 8.03, 7.58, 6.61, 6.16, 5.7, 5.7, 6.23, 6.23, 5.79, 5.78, 5.34, 5.34, 5.34, 5.34, 5.78, 5.7, 5.7, 5.99, 5.99, 6.04, 6.3, 8.14, 7.07, 7.13, 7.15, 7.13, 7.07, 6.94, 6.94, 6.94, 6.94, 6.94, 6.47, 5.31, 4.6, 4.6, 4.77, 4.44, 6.26, 6.71, 7.15, 7.6, 7.6, 8.49, 8.05, 8.49, 8.9, 9.36, 11.57, 13.23, 15.02, 17.99, 17.38, 14.87, 12.04, 11.15, 11.53, 12.88, 14.23, 14.23, 14.29, 14.75, 15.63, 16.02, 16.02, 15.93, 15.49, 15.34, 14.9, 14.87, 14.4, 13.96, 14.21, 14.21, 8.21, 8.21, 8.33, 8.33, 8.33, 8.42, 8.42, 8.42, 8.42, 8.42, 8.42, 8.41, 7.97, 7.58, 7.6, 7.6, 7.15, 7.15, 7.15, 7.6, 7.6, 7.6, 7.6, 7.58, 8.03, 7.52, 7.06, 6.16, 5.7, 5.7, 5.7, 6.16, 5.78, 5.78, 5.34, 5.33, 5.33, 5.34, 5.7, 5.7, 5.57, 5.99, 5.99, 6.3, 6.51, 7.21, 7.07, 7.13, 7.6, 7.58, 7.51, 7.07, 6.94, 7.06, 7.06, 6.94, 5.81, 5.09, 5.02, 4.77, 4.77, 4.88, 4.44, 6.71, 7.15, 7.5, 7.5, 8.05, 7.55, 8.45, 8.9, 9.35, 11.18, 11.06, 13.67, 16.33, 19.39, 20.46, 15.9, 13.64, 13.64, 15.05, 15.18, 15.2, 15.2, 16.07, 16.02, 16.39, 16.25, 16.09, 16.09, 15.41, 14.99, 14.92, 13.99, 13.99, 13.99, 13.99, 8.21, 8.21, 8.33, 8.33, 8.33, 8.33, 8.42, 8.42, 8.42, 8.42, 8.42, 8.42, 8.03, 7.58, 7.6, 7.6, 7.6, 7.6, 7.6, 7.6, 7.6, 7.58, 7.58, 7.58, 7.97, 7.97, 7.51, 6.61, 5.99, 5.57, 5.57, 5.57, 5.7, 5.7, 5.34, 5.33, 5.33, 5.26, 5.7, 5.7, 5.57, 5.99, 5.81, 6.3, 6.51, 6.79, 6.97, 7.58, 7.6, 7.58, 7.51, 7.07, 7.06, 7.06, 7.06, 6.61, 5.99, 5.09, 5.09, 4.77, 4.89, 4.89, 4.92, 6.71, 6.58, 7.06, 7.5, 7.94, 6.98, 7.89, 8.45, 8.9, 9.83, 11.15, 12.49, 13.76, 16.96, 19.59, 19.69, 17.73, 17.66, 17.88, 16.4, 14.75, 14.68, 15.49, 16.25, 16.09, 15.9, 15.69, 15.61, 14.94, 14.94, 14.58, 14.17, 14.17, 14.17, 14.17, 8.21, 8.21, 8.33, 8.33, 8.33, 8.33, 8.33, 8.33, 8.42, 8.42, 8.42, 7.97, 8.03, 8.05, 7.6, 7.6, 7.6, 7.6, 7.6, 7.6, 7.58, 7.58, 7.58, 7.52, 7.97, 7.97, 7.51, 6.94, 6.04, 5.99, 5.57, 5.57, 5.57, 5.57, 5.7, 5.26, 5.26, 5.7, 5.7, 5.57, 5.57, 5.81, 5.81, 6.0, 6.1, 6.72, 6.94, 7.58, 7.6, 7.6, 7.58, 7.07, 7.06, 7.06, 6.61, 6.04, 5.99, 5.09, 5.24, 4.8, 4.89, 4.89, 4.92, 4.92, 7.01, 7.01, 7.06, 6.65, 7.42, 7.85, 8.85, 8.49, 9.39, 10.73, 11.6, 12.42, 14.21, 16.19, 17.08, 18.1, 20.06, 21.92, 19.46, 14.93, 12.96, 13.69, 15.22, 15.69, 15.36, 14.54, 15.2, 13.59, 13.99, 13.83, 13.43, 13.43, 13.43, 13.43, 8.3, 8.3, 8.3, 8.3, 8.33, 8.33, 8.33, 8.33, 8.42, 8.42, 8.42, 8.03, 8.03, 8.05, 8.05, 7.6, 7.6, 7.6, 7.6, 7.6, 7.58, 7.58, 7.51, 7.52, 7.97, 7.97, 7.4, 6.97, 6.51, 6.04, 5.81, 5.81, 5.81, 5.4, 5.57, 5.7, 5.7, 5.7, 5.7, 5.57, 5.81, 5.81, 5.6, 6.0, 6.1, 6.3, 7.06, 7.13, 7.15, 7.15, 7.13, 7.07, 7.06, 6.61, 6.6, 6.16, 5.7, 5.24, 5.24, 4.8, 4.89, 5.33, 5.36, 4.92, 4.88, 7.01, 7.15, 6.71, 7.15, 7.6, 8.05, 8.49, 8.94, 9.83, 10.7, 11.51, 12.58, 13.99, 14.39, 14.51, 17.73, 22.7, 22.66, 18.14, 15.27, 14.29, 15.05, 14.62, 14.39, 14.09, 12.65, 11.9, 12.52, 12.52, 12.52, 12.89, 12.89, 12.89, 8.3, 8.3, 8.3, 8.3, 8.3, 8.33, 8.33, 8.33, 8.42, 8.42, 8.42, 8.03, 8.03, 8.05, 8.05, 7.6, 7.6, 7.6, 7.6, 7.58, 7.58, 7.51, 7.51, 7.51, 7.52, 7.4, 7.4, 7.4, 6.94, 6.3, 5.88, 5.6, 5.6, 5.4, 5.51, 5.09, 5.57, 5.57, 5.99, 5.81, 5.81, 5.6, 5.6, 6.0, 6.3, 6.47, 6.61, 7.13, 7.15, 7.15, 7.13, 7.06, 6.61, 6.6, 6.16, 6.16, 5.7, 5.24, 5.24, 4.8, 5.33, 5.33, 5.36, 4.89, 4.44, 6.71, 6.71, 7.15, 7.6, 7.6, 8.05, 8.49, 8.94, 9.83, 10.25, 10.6, 11.84, 12.8, 12.7, 12.47, 15.09, 20.05, 22.66, 21.06, 19.36, 17.16, 15.13, 13.09, 11.26, 10.86, 11.25, 10.86, 10.86, 11.52, 11.52, 11.52, 11.52, 11.52, 8.17, 8.17, 8.3, 7.87, 8.3, 8.3, 8.33, 8.42, 8.42, 8.42, 8.42, 8.03, 8.03, 8.05, 8.05, 7.6, 7.6, 7.6, 7.58, 7.58, 7.58, 7.51, 7.51, 7.51, 7.4, 7.4, 7.4, 7.4, 6.79, 6.79, 6.3, 6.1, 5.81, 5.31, 4.9, 4.9, 5.31, 5.81, 5.81, 5.81, 5.6, 5.6, 5.6, 5.6, 5.81, 6.47, 6.61, 6.68, 6.71, 6.71, 6.68, 6.61, 6.6, 6.16, 6.23, 6.23, 5.7, 5.24, 4.8, 4.89, 5.33, 5.33, 4.89, 4.88, 4.44, 6.71, 6.71, 7.15, 7.6, 7.15, 7.6, 8.05, 8.94, 9.39, 9.8, 10.16, 11.05, 11.61, 11.62, 11.75, 13.35, 16.95, 19.71, 19.85, 20.43, 18.79, 16.25, 12.88, 7.31, 7.36, 8.95, 9.4, 9.4, 9.4, 9.8, 10.12, 10.12, 10.12, 8.3, 8.3, 7.87, 7.87, 7.87, 8.3, 8.3, 8.42, 8.42, 8.42, 8.47, 8.03, 8.03, 8.05, 8.05, 8.05, 7.6, 7.58, 7.58, 7.58, 7.52, 7.51, 7.51, 7.4, 7.4, 7.4, 7.4, 7.26, 7.26, 6.79, 6.79, 5.81, 5.31, 4.9, 4.8, 5.31, 5.08, 5.47, 5.6, 5.6, 6.0, 6.0, 6.0, 5.6, 5.88, 6.6, 6.61, 6.68, 6.71, 6.71, 6.71, 6.68, 6.23, 6.23, 6.23, 5.78, 5.26, 5.24, 4.8, 4.89, 5.33, 5.36, 4.92, 4.47, 4.44, 5.36, 5.75, 6.65, 6.65, 7.6, 8.05, 8.05, 8.49, 8.94, 9.39, 9.8, 10.14, 10.45, 10.85, 11.09, 11.75, 13.83, 15.74, 18.1, 20.32, 20.29, 14.31, 10.18, 6.55, 5.0, 5.7, 7.12, 7.9, 8.37, 8.37, 9.1, 9.1, 9.1, 7.87, 7.87, 7.87, 7.87, 7.87, 7.87, 8.41, 8.41, 8.42, 8.42, 8.03, 8.03, 8.03, 8.03, 8.03, 8.03, 8.03, 8.03, 8.03, 7.97, 7.52, 7.51, 7.4, 7.4, 7.4, 7.4, 7.4, 7.26, 7.26, 6.79, 6.3, 5.4, 4.9, 4.8, 4.8, 5.08, 5.08, 5.08, 5.47, 5.6, 5.75, 5.75, 6.0, 5.6, 6.04, 6.6, 6.68, 6.23, 6.26, 6.26, 6.26, 6.23, 6.23, 5.79, 5.78, 5.78, 5.33, 4.89, 4.89, 4.89, 5.33, 5.36, 4.92, 4.47, 4.02, 4.92, 5.29, 5.75, 6.65, 7.15, 7.6, 8.05, 8.01, 8.94, 8.94, 9.39, 9.8, 9.7, 9.97, 10.43, 11.09, 11.75, 12.86, 16.39, 20.7, 18.88, 15.83, 13.09, 10.05, 7.15, 6.0, 5.94, 6.36, 7.12, 7.63, 7.63, 7.63, 7.63, 7.87, 7.87, 7.87, 7.87, 7.87, 7.87, 7.97, 7.97, 8.41, 7.97, 7.97, 8.03, 8.03, 8.03, 8.03, 8.03, 8.03, 8.03, 7.97, 7.97, 7.52, 7.51, 7.4, 7.4, 7.4, 7.4, 7.26, 7.26, 7.09, 6.79, 5.88, 5.51, 4.8, 4.55, 4.55, 5.08, 5.08, 5.08, 5.47, 5.37, 5.75, 5.75, 5.75, 5.6, 5.88, 6.16, 6.23, 6.23, 5.81, 6.26, 6.26, 6.23, 6.23, 5.78, 5.78, 5.34, 5.33, 4.89, 4.88, 4.89, 5.36, 5.36, 4.92, 4.47, 3.58, 2.24, 4.92, 5.36, 5.81, 6.71, 7.15, 7.6, 7.6, 7.55, 8.45, 8.94, 9.39, 9.36, 9.7, 10.02, 10.68, 11.37, 12.3, 15.61, 23.14, 20.51, 17.3, 15.49, 12.88, 11.09, 9.83, 7.76, 6.01, 5.06, 5.52, 6.31, 6.31, 6.31, 7.87, 7.87, 7.87, 7.87, 7.87, 7.87, 7.97, 7.97, 7.97, 7.97, 7.97, 8.03, 8.03, 8.03, 8.03, 8.03, 7.97, 7.97, 7.97, 7.52, 7.51, 7.4, 7.4, 7.4, 7.4, 7.26, 7.26, 7.51, 7.09, 6.3, 5.57, 5.09, 4.8, 4.55, 4.55, 4.93, 5.08, 5.47, 5.21, 5.75, 5.75, 5.75, 5.75, 6.0, 5.88, 6.16, 5.78, 5.81, 5.81, 5.81, 5.81, 6.26, 6.23, 5.78, 5.78, 5.34, 5.33, 4.88, 4.88, 4.89, 5.36, 5.36, 4.92, 4.47, 3.13, 2.24, 4.47, 4.92, 5.36, 5.81, 6.26, 7.15, 7.6, 7.15, 8.0, 8.01, 8.49, 8.9, 9.36, 9.7, 9.97, 10.89, 12.27, 21.44, 22.75, 20.45, 18.72, 16.97, 14.3, 12.07, 10.73, 8.49, 5.81, 4.22, 4.84, 5.82, 5.82, 5.82, 7.87, 7.87, 7.87, 7.87, 7.87, 7.87, 7.97, 7.97, 7.97, 7.97, 7.97, 7.97, 7.97, 7.97, 7.97, 7.97, 7.97, 7.97, 7.52, 7.51, 7.4, 7.4, 7.4, 7.4, 7.26, 7.26, 7.26, 7.51, 7.01, 6.3, 5.57, 5.09, 4.9, 4.55, 4.55, 4.65, 4.84, 5.21, 5.58, 5.49, 5.49, 5.49, 5.75, 6.0, 6.04, 5.7, 5.34, 5.81, 5.81, 5.81, 5.81, 5.81, 5.81, 5.78, 5.78, 5.33, 4.89, 4.88, 4.88, 4.92, 5.36, 5.36, 4.92, 4.47, 3.13, 2.24, 2.24, 2.24, 4.92, 5.81, 6.26, 6.71, 7.15, 7.15, 6.65, 7.15, 8.05, 8.45, 8.9, 8.9, 9.24, 10.14, 15.91, 20.32, 21.59, 19.78, 17.82, 15.65, 12.05, 8.84, 7.15, 6.54, 6.11, 5.77, 6.8, 8.14, 8.14, 8.14, 7.87, 7.87, 7.87, 7.87, 7.87, 7.87, 7.87, 7.97, 7.97, 7.97, 7.97, 7.97, 7.97, 7.97, 7.97, 7.97, 7.97, 7.52, 7.51, 7.4, 7.4, 7.4, 7.4, 7.26, 7.26, 7.26, 7.51, 7.51, 7.01, 6.3, 5.4, 5.31, 4.9, 4.55, 4.55, 4.29, 4.65, 4.94, 5.29, 5.29, 5.86, 5.86, 5.86, 6.1, 5.7, 5.34, 5.36, 5.36, 5.81, 5.81, 5.81, 5.81, 5.81, 5.81, 5.36, 5.33, 4.89, 4.88, 4.92, 4.92, 5.36, 5.36, 4.92, 4.47, 3.58, 2.24, 1.79, 1.79, 4.47, 5.36, 6.26, 6.71, 7.15, 7.15, 7.1, 7.1, 7.11, 8.01, 8.45, 8.45, 8.45, 9.24, 14.4, 18.39, 20.01, 18.6, 16.91, 12.96, 8.01, 4.47, 3.72, 5.86, 7.08, 8.6, 9.0, 8.93, 8.93, 8.93, 7.87, 7.87, 7.87, 7.87, 7.87, 7.87, 7.87, 7.97, 7.97, 7.97, 7.97, 7.97, 7.97, 7.97, 7.97, 7.97, 7.52, 7.51, 7.4, 7.4, 7.4, 7.4, 7.4, 7.26, 7.26, 7.26, 7.51, 7.09, 6.6, 5.81, 5.4, 5.31, 4.9, 4.55, 4.37, 4.29, 4.65, 4.94, 5.29, 5.29, 5.59, 5.93, 6.03, 5.88, 5.34, 4.92, 5.36, 5.81, 5.81, 5.81, 5.81, 5.81, 5.36, 5.36, 5.36, 5.36, 4.89, 4.92, 4.47, 4.92, 5.36, 5.36, 4.92, 4.47, 4.02, 2.68, 1.79, 1.34, 1.7, 4.85, 5.75, 6.26, 6.71, 7.15, 7.15, 7.15, 7.15, 7.6, 8.05, 8.05, 8.01, 9.7, 12.27, 16.53, 19.56, 19.86, 17.82, 12.52, 6.55, 4.01, 4.8, 7.09, 8.49, 9.62, 9.66, 9.67, 9.67, 9.67, 7.87, 7.87, 7.87, 7.87, 7.87, 7.87, 7.87, 7.87, 7.97, 7.97, 7.97, 7.97, 7.97, 7.97, 7.97, 7.52, 7.51, 7.4, 7.4, 7.4, 7.4, 7.4, 7.4, 7.26, 7.26, 7.51, 7.51, 7.01, 6.51, 5.81, 5.4, 5.31, 4.55, 4.55, 4.37, 4.29, 4.65, 4.94, 5.29, 5.01, 5.93, 5.93, 6.28, 5.57, 5.36, 4.92, 5.36, 5.81, 5.81, 5.81, 5.81, 5.36, 5.36, 5.36, 5.36, 4.92, 4.92, 4.47, 4.47, 4.92, 5.36, 5.36, 4.92, 4.92, 4.44, 3.53, 2.63, 1.86, 2.4, 4.15, 5.73, 6.2, 6.21, 6.71, 6.71, 7.15, 7.11, 7.6, 8.05, 8.05, 8.49, 9.36, 11.15, 15.12, 19.61, 21.89, 18.78, 12.94, 7.73, 5.86, 6.87, 8.22, 9.56, 10.66, 10.28, 10.63, 10.63, 10.63, 7.74, 7.74, 7.87, 7.87, 7.87, 7.87, 7.87, 7.87, 7.97, 7.97, 7.97, 7.97, 7.97, 7.97, 7.97, 7.4, 7.4, 7.4, 7.4, 7.4, 7.4, 7.4, 7.26, 7.26, 7.26, 7.51, 7.51, 7.01, 6.1, 5.4, 5.4, 5.31, 4.55, 4.37, 4.07, 4.07, 4.65, 4.94, 5.29, 5.35, 5.65, 6.15, 6.1, 5.7, 4.92, 4.92, 5.33, 5.78, 5.81, 5.81, 5.81, 5.36, 5.36, 5.36, 5.36, 4.92, 4.92, 4.47, 4.47, 4.92, 5.36, 5.36, 5.36, 4.92, 4.44, 3.98, 3.39, 2.91, 2.5, 4.57, 5.09, 5.59, 6.2, 6.2, 6.65, 7.1, 7.55, 7.55, 7.55, 8.05, 8.49, 9.39, 11.18, 14.75, 19.67, 22.8, 19.22, 12.79, 9.05, 8.59, 8.93, 9.21, 10.15, 11.2, 11.2, 11.09, 11.09, 11.09, 7.74, 7.74, 7.87, 7.87, 7.87, 7.87, 7.87, 7.87, 7.87, 7.87, 7.87, 7.87, 7.87, 7.87, 7.4, 7.4, 7.4, 7.4, 7.4, 7.4, 6.97, 7.4, 7.26, 7.26, 7.09, 7.51, 7.09, 6.6, 5.81, 5.4, 5.4, 5.31, 4.55, 4.37, 4.07, 4.07, 4.65, 4.94, 5.29, 5.65, 6.23, 6.15, 6.3, 5.26, 4.89, 4.89, 5.33, 5.78, 5.81, 5.81, 5.81, 5.36, 5.36, 5.36, 4.92, 4.92, 4.92, 4.47, 4.47, 4.92, 4.92, 5.36, 5.36, 4.89, 4.44, 4.43, 3.82, 3.2, 3.07, 3.6, 4.11, 5.59, 6.2, 6.2, 6.65, 7.1, 7.11, 7.6, 7.6, 8.05, 8.49, 9.83, 11.6, 14.73, 20.1, 22.8, 19.22, 12.79, 9.74, 9.52, 10.09, 10.4, 10.53, 11.09, 11.87, 11.87, 11.87, 11.87, 7.69, 7.69, 7.74, 7.87, 7.87, 7.87, 7.87, 7.87, 7.87, 7.87, 7.87, 7.87, 7.87, 7.4, 7.4, 7.4, 7.4, 7.4, 7.4, 7.4, 7.4, 7.26, 7.26, 7.26, 7.51, 7.51, 7.01, 6.51, 5.81, 5.4, 5.4, 5.31, 4.93, 4.29, 4.07, 4.07, 4.65, 4.94, 5.35, 5.65, 6.23, 6.56, 6.3, 5.24, 4.88, 4.8, 5.24, 5.78, 5.78, 5.81, 5.36, 5.36, 5.36, 4.92, 4.92, 4.92, 4.92, 4.47, 4.47, 4.92, 4.92, 5.36, 5.36, 4.89, 4.88, 4.34, 3.87, 3.6, 3.6, 3.6, 4.11, 5.59, 5.75, 7.06, 6.26, 6.71, 7.15, 7.6, 7.6, 8.01, 8.94, 9.8, 11.6, 14.73, 19.22, 22.78, 19.52, 13.49, 10.1, 9.68, 9.86, 10.38, 11.03, 11.52, 11.75, 12.18, 12.18, 12.18, 7.69, 7.69, 7.74, 7.87, 7.87, 7.87, 7.87, 7.87, 7.87, 7.87, 7.87, 7.87, 7.4, 7.4, 7.4, 7.4, 7.4, 7.4, 7.4, 7.4, 7.26, 7.26, 7.26, 7.26, 7.51, 7.51, 6.8, 6.1, 5.81, 5.31, 5.31, 5.08, 5.08, 4.29, 4.07, 4.11, 4.37, 4.94, 5.35, 5.65, 6.7, 6.56, 6.3, 5.24, 4.77, 4.77, 5.24, 5.26, 5.78, 5.36, 5.36, 5.36, 4.92, 4.92, 4.92, 4.92, 4.92, 4.92, 4.47, 4.92, 4.92, 5.36, 5.33, 5.33, 4.89, 4.77, 4.3, 3.7, 3.6, 3.35, 3.72, 4.6, 4.77, 7.06, 6.2, 6.65, 7.1, 7.55, 7.55, 8.0, 8.33, 9.7, 11.06, 13.76, 17.43, 20.87, 19.73, 15.35, 11.45, 10.25, 10.68, 10.75, 10.8, 11.71, 11.89, 12.27, 12.27, 12.27, 7.69, 7.69, 7.74, 7.87, 7.87, 7.87, 7.87, 7.87, 7.87, 7.87, 7.87, 7.87, 7.4, 7.4, 7.4, 7.4, 7.4, 7.4, 7.4, 7.4, 7.26, 7.26, 7.26, 7.26, 7.51, 7.51, 6.8, 6.1, 5.81, 5.31, 5.31, 5.08, 5.08, 4.29, 4.07, 4.11, 4.37, 4.94, 5.35, 5.65, 6.7, 6.56, 6.3, 5.24, 4.77, 4.77, 5.24, 5.26, 5.78, 5.36, 5.36, 5.36, 4.92, 4.92, 4.92, 4.92, 4.92, 4.92, 4.47, 4.92, 4.92, 5.36, 5.33, 5.33, 4.89, 4.77, 4.3, 3.7, 3.6, 3.35, 3.72, 4.6, 4.77, 7.06, 6.2, 6.65, 7.11, 7.55, 7.55, 8.0, 8.33, 9.7, 11.06, 12.86, 15.65, 18.26, 19.08, 16.96, 13.91, 11.45, 11.18, 11.18, 11.36, 11.4, 11.4, 11.96, 11.96, 11.96]}, {"header": {"dx": 0.06612293990616946, "dy": 0.0552356325346848, "nx": 98, "ny": 59, "la1": 35.046912555036876, "la2": 31.78801023549047, "lo1": -121.43107172385933, "lo2": -114.95102361305473, "refTime": "2026042201", "parameterCategory": 1, "parameterNumber": 3}, "data": [0.0, 0.55, 0.59, 1.16, 1.65, 1.65, 2.17, 2.3, 2.33, 2.37, 2.73, 2.75, 3.21, 3.49, 3.21, 3.88, 4.4, 5.06, 5.45, 5.98, 5.69, 5.69, 4.92, 4.92, 4.8, 5.41, 6.57, 7.36, 7.24, 7.24, 6.57, 6.7, 6.83, 6.83, 5.64, 3.49, 1.67, 0.0, 0.89, 3.55, 5.59, 6.48, 6.69, 7.27, 6.94, 7.12, 7.79, 8.95, 9.7, 10.43, 10.75, 10.65, 10.25, 9.77, 9.39, 8.86, 8.74, 8.74, 8.74, 8.16, 7.82, 7.2, 6.24, 6.42, 5.46, 4.88, 4.88, 4.85, 6.28, 8.18, 10.04, 10.75, 10.25, 10.15, 9.8, 8.96, 7.88, 6.52, 5.6, 3.99, 3.96, 3.16, 2.35, 1.61, 0.0, 0.0, -0.83, -1.54, 0.0, 3.36, 7.18, 9.66, 9.62, 9.56, 9.48, 9.48, 9.4, 8.56, 0.0, 0.0, 0.59, 1.11, 1.11, 1.65, 1.65, 2.3, 2.19, 2.21, 2.23, 3.21, 3.21, 3.7, 3.61, 4.6, 4.0, 4.6, 4.6, 4.83, 5.69, 5.69, 5.69, 5.69, 4.83, 5.64, 6.7, 7.36, 8.12, 8.12, 8.53, 9.0, 9.0, 7.59, 4.96, 2.51, 1.84, 2.53, 5.21, 7.76, 8.82, 8.49, 7.27, 7.18, 7.24, 8.18, 8.95, 9.4, 9.7, 10.43, 10.34, 9.49, 9.77, 8.51, 8.76, 8.86, 8.74, 8.99, 8.99, 7.82, 7.2, 7.2, 6.24, 5.56, 4.75, 4.62, 5.67, 7.23, 8.72, 10.25, 10.98, 10.25, 9.77, 8.86, 8.62, 8.12, 7.22, 6.52, 5.6, 3.99, 3.96, 3.16, 2.35, 1.61, 0.0, 0.0, -0.83, -1.54, 0.0, 3.36, 7.18, 9.66, 9.62, 9.56, 9.48, 9.48, 9.4, 8.56, 0.0, 0.0, 0.59, 0.56, 1.11, 1.11, 1.65, 1.75, 2.19, 2.21, 2.23, 2.73, 3.21, 3.21, 3.88, 3.88, 4.2, 3.88, 4.4, 4.8, 4.71, 5.69, 5.98, 7.27, 7.65, 6.42, 6.42, 6.42, 7.59, 8.31, 9.66, 11.28, 11.88, 10.23, 6.73, 4.74, 3.58, 5.2, 7.12, 8.3, 8.3, 7.64, 7.48, 7.36, 8.01, 7.9, 8.66, 8.66, 9.4, 9.31, 9.6, 8.99, 8.99, 8.72, 8.51, 8.86, 8.74, 8.99, 8.62, 7.82, 7.2, 7.2, 6.24, 5.56, 5.67, 5.62, 7.93, 10.65, 12.01, 11.19, 10.43, 8.86, 7.82, 7.23, 7.32, 6.97, 6.26, 6.42, 4.28, 3.89, 3.26, 3.16, 2.43, 1.51, 0.0, -0.71, -1.44, -0.79, 3.32, 7.27, 9.0, 9.27, 9.62, 9.56, 9.48, 8.66, 8.29, 8.05, 0.0, 0.0, 0.59, 0.59, 0.56, 1.11, 1.11, 1.75, 1.67, 1.69, 2.23, 2.23, 3.21, 3.21, 3.21, 3.88, 3.21, 3.49, 3.21, 4.07, 4.71, 4.88, 4.66, 6.42, 7.82, 8.54, 7.18, 6.24, 6.01, 7.44, 9.6, 11.75, 12.79, 12.82, 10.41, 7.44, 6.9, 7.2, 6.8, 7.76, 7.69, 7.27, 7.18, 7.08, 7.24, 8.01, 8.76, 8.66, 8.95, 8.84, 8.58, 8.18, 7.93, 8.72, 9.49, 8.86, 8.86, 8.74, 8.03, 7.82, 7.2, 7.2, 6.24, 6.35, 7.01, 8.84, 11.14, 12.37, 12.58, 11.45, 10.21, 7.71, 6.52, 5.71, 5.02, 4.85, 3.86, 4.08, 4.08, 3.2, 2.88, 2.32, 1.63, 0.79, 0.0, -0.77, 0.0, 3.27, 7.68, 9.67, 9.66, 9.27, 8.85, 8.76, 8.66, 7.79, 7.79, 7.25, 0.0, 0.0, 0.0, 0.59, 0.56, 1.11, 1.11, 1.18, 1.67, 1.69, 1.71, 2.26, 2.57, 2.57, 3.21, 3.21, 3.06, 3.06, 3.32, 4.0, 5.45, 5.98, 5.46, 5.72, 6.53, 8.22, 8.22, 7.27, 7.07, 7.12, 8.3, 8.95, 10.0, 10.28, 10.59, 10.41, 9.48, 7.56, 5.82, 6.8, 7.81, 7.27, 7.9, 7.82, 7.36, 8.12, 8.01, 8.66, 8.95, 8.84, 7.93, 8.05, 8.56, 9.6, 9.77, 9.66, 8.74, 8.74, 8.03, 7.82, 7.0, 7.0, 7.11, 7.93, 10.43, 12.16, 13.18, 12.72, 13.28, 12.96, 11.4, 9.67, 7.69, 6.2, 4.61, 2.81, 2.39, 1.58, 2.31, 2.16, 1.42, 0.78, 0.77, 0.0, -0.77, 0.0, 3.6, 8.06, 9.3, 9.3, 9.62, 8.85, 8.76, 8.3, 8.18, 7.79, 7.01, 6.43, 0.0, 0.0, 0.0, 0.59, 0.56, 0.56, 1.11, 1.12, 1.12, 1.69, 1.71, 1.61, 2.57, 2.57, 2.57, 2.57, 3.06, 2.57, 3.15, 4.12, 4.96, 6.53, 6.69, 7.27, 6.95, 7.56, 7.81, 8.37, 8.15, 8.63, 6.8, 6.21, 6.18, 6.73, 7.27, 8.93, 8.6, 7.27, 5.06, 5.75, 7.35, 9.48, 9.34, 8.85, 8.12, 8.53, 8.01, 7.9, 7.9, 7.79, 7.79, 8.95, 9.24, 9.6, 9.49, 8.74, 8.74, 8.16, 7.82, 7.82, 7.93, 7.23, 8.95, 11.6, 13.51, 14.47, 13.41, 12.72, 12.64, 12.96, 12.85, 11.28, 10.47, 8.86, 6.54, 3.98, 1.59, 0.78, 1.6, 1.57, 0.78, 0.0, 0.0, 0.0, -0.79, 1.65, 7.44, 9.27, 9.3, 9.0, 9.23, 9.06, 8.66, 7.9, 7.01, 7.01, 6.43, 6.56, 0.0, 0.0, 0.0, 0.0, 0.56, 0.56, 0.56, 1.12, 1.12, 1.14, 1.14, 1.71, 2.35, 1.67, 2.28, 2.31, 2.57, 3.32, 3.15, 3.6, 3.91, 5.1, 5.89, 6.95, 7.81, 7.56, 7.64, 8.0, 8.72, 8.18, 7.44, 5.58, 5.21, 5.06, 6.7, 7.64, 8.31, 7.95, 6.64, 5.2, 6.64, 8.15, 9.66, 10.23, 10.02, 9.17, 8.95, 7.25, 6.33, 6.7, 7.96, 8.66, 9.6, 8.72, 7.82, 7.45, 7.11, 7.11, 7.11, 7.32, 7.36, 8.76, 11.28, 14.07, 15.12, 15.09, 14.0, 12.01, 11.19, 11.25, 11.28, 10.48, 9.65, 8.83, 7.04, 4.79, 3.16, 1.54, 0.79, 0.78, 0.79, 0.0, -0.8, -0.8, 0.0, 4.94, 8.67, 9.04, 9.0, 8.6, 8.53, 8.44, 7.79, 7.01, 6.43, 6.21, 6.33, 6.45, 0.0, 0.0, 0.0, 0.0, 0.56, 0.56, 0.56, 0.56, 0.56, 1.06, 1.14, 1.16, 1.75, 1.84, 2.28, 2.31, 3.15, 3.32, 3.15, 3.27, 3.4, 3.79, 3.9, 4.16, 4.83, 5.72, 5.69, 7.07, 7.21, 6.95, 6.63, 6.79, 7.21, 6.7, 6.7, 6.01, 5.21, 5.64, 6.69, 6.28, 6.64, 7.6, 8.0, 7.9, 9.08, 9.21, 8.56, 8.05, 6.7, 6.97, 6.7, 8.3, 8.31, 8.18, 7.01, 6.4, 6.4, 6.2, 6.4, 6.31, 6.97, 9.67, 12.7, 14.95, 15.12, 14.37, 13.07, 10.59, 8.86, 8.03, 7.88, 7.22, 5.51, 4.67, 3.18, 2.83, 2.34, 1.54, 0.77, 0.0, 0.0, 0.0, -0.72, -0.7, 2.9, 7.61, 9.21, 9.0, 8.6, 8.53, 8.09, 8.01, 7.79, 7.25, 6.21, 5.72, 6.09, 6.45, 0.0, 0.0, 0.0, 0.0, 0.0, 0.56, 0.56, 0.56, 0.56, 0.54, 0.57, 0.55, 1.26, 1.84, 2.69, 2.69, 2.69, 3.15, 3.45, 3.6, 5.03, 3.91, 3.72, 2.8, 3.33, 3.6, 3.68, 5.06, 5.03, 4.71, 5.06, 6.23, 6.79, 7.07, 5.59, 4.26, 2.82, 3.91, 4.96, 6.01, 6.63, 7.44, 7.21, 7.27, 6.97, 6.97, 7.69, 7.95, 8.37, 8.46, 8.91, 7.24, 6.43, 6.31, 6.2, 5.67, 5.48, 5.6, 5.6, 6.0, 8.03, 11.09, 12.98, 14.39, 14.5, 14.0, 11.8, 9.55, 7.32, 5.51, 4.88, 3.61, 2.4, 0.71, 0.0, 0.0, 0.0, 0.0, 0.0, 0.0, 0.0, 0.0, 0.0, 2.17, 6.79, 9.2, 9.53, 8.85, 8.16, 7.8, 7.73, 7.28, 6.94, 7.01, 6.43, 6.33, 6.45, 6.57, 0.0, 0.0, 0.0, 0.0, 0.0, 0.0, 0.0, 0.0, 0.0, 0.0, 0.57, 0.0, 0.0, 0.55, 1.75, 1.84, 2.69, 2.69, 4.0, 3.8, 3.6, 3.6, 4.14, 3.91, 2.66, 3.4, 3.91, 2.49, 3.68, 3.6, 4.47, 4.43, 5.01, 5.37, 4.96, 3.52, 2.4, 2.6, 5.03, 6.01, 5.59, 5.89, 5.49, 5.21, 5.28, 5.63, 5.51, 7.12, 8.66, 9.7, 9.7, 8.56, 7.25, 6.43, 6.43, 5.6, 4.87, 4.07, 4.34, 7.06, 11.37, 13.49, 14.73, 13.99, 14.13, 13.28, 11.69, 9.24, 5.64, 2.41, 0.82, 0.72, 0.0, 0.0, -1.45, -2.16, -2.41, -2.47, -2.18, -0.7, 1.43, 4.5, 3.61, 7.44, 10.12, 11.11, 10.43, 9.13, 8.79, 8.49, 7.73, 7.28, 6.56, 6.56, 6.21, 6.33, 6.45, 6.57, 0.0, 0.0, 0.0, 0.0, 0.0, 0.0, 0.0, 0.0, 0.0, 0.0, 0.0, 0.0, 0.0, 0.0, 0.85, 0.8, 1.84, 2.12, 2.26, 2.29, 2.54, 2.83, 2.67, 2.67, 2.54, 2.54, 2.54, 2.4, 2.4, 2.69, 2.69, 2.64, 2.8, 2.64, 2.4, 2.28, 3.7, 4.0, 4.12, 5.06, 4.83, 4.6, 4.34, 4.66, 4.4, 4.07, 4.6, 6.31, 8.12, 8.76, 11.14, 12.09, 12.09, 11.82, 11.2, 10.51, 10.58, 5.24, 3.39, 8.49, 14.87, 16.96, 15.24, 14.39, 14.51, 14.99, 14.84, 12.88, 8.51, 1.7, -1.68, -1.45, 0.0, -1.39, -2.82, -3.73, -4.24, -3.29, -1.68, 1.67, 5.78, 8.85, 10.78, 11.11, 12.04, 12.37, 11.7, 10.75, 10.12, 8.73, 7.73, 7.12, 6.33, 5.72, 5.4, 5.72, 6.45, 6.57, -0.59, 0.0, 0.0, 0.0, 0.0, 0.0, 0.0, 0.0, 0.0, 0.0, 0.0, 0.0, 0.0, 0.0, 0.0, 0.56, 1.1, 1.65, 1.65, 1.65, 1.14, 1.14, 1.14, 1.2, 1.14, 1.2, 2.33, 1.65, 1.75, 1.26, 2.46, 1.75, 1.84, 1.65, 0.85, 1.6, 2.28, 3.36, 3.88, 4.07, 4.07, 4.0, 3.8, 3.52, 3.52, 4.12, 6.95, 8.15, 9.3, 10.41, 11.88, 14.49, 16.69, 19.1, 18.73, 18.45, 18.68, 10.9, 3.9, 8.4, 15.65, 17.89, 16.85, 14.79, 15.43, 18.1, 21.35, 21.48, 19.23, 12.09, 1.55, -3.58, -1.45, -1.68, -3.36, -3.88, -3.27, 0.0, 3.09, 6.51, 9.56, 10.43, 10.75, 12.09, 12.7, 13.0, 11.97, 11.34, 10.7, 8.58, 7.11, 5.89, 5.1, 4.58, 4.87, 5.51, 6.2, 6.2, -0.59, -0.59, -0.59, 0.0, 0.0, 0.0, 0.0, 0.0, 0.0, 0.0, 0.0, 0.0, 0.0, 0.0, 0.55, 0.56, 1.1, 1.12, 1.12, 1.04, 1.14, 1.14, 1.14, 0.54, 0.55, 0.55, 1.16, 1.12, 1.1, 0.58, 0.85, 0.85, 0.81, 0.81, 0.81, 0.81, 1.47, 2.47, 2.35, 2.35, 3.06, 3.32, 3.15, 3.09, 3.4, 4.47, 7.76, 9.1, 9.48, 10.16, 10.48, 11.69, 14.26, 16.44, 18.87, 19.43, 19.14, 17.23, 8.06, 9.24, 13.65, 15.56, 15.35, 14.3, 16.03, 18.45, 22.12, 26.45, 26.44, 25.71, 15.09, 2.21, -3.58, -2.6, -1.72, 0.0, 2.4, 5.89, 8.53, 9.73, 9.76, 9.6, 9.3, 9.49, 11.7, 11.92, 11.08, 9.88, 9.5, 8.01, 6.27, 5.02, 4.32, 4.01, 4.68, 5.63, 6.2, 5.63, -0.59, -0.59, -0.59, -0.59, -0.59, 0.0, 0.0, 0.0, 0.0, 0.0, 0.0, 0.0, 0.0, 0.0, 0.55, 0.56, 1.12, 1.12, 1.12, 0.57, 0.57, 0.57, 0.57, 0.53, 0.61, 0.55, 0.54, 0.53, 0.59, 0.0, 0.0, 0.0, 0.0, 0.0, 0.0, 0.81, 0.77, 1.67, 1.58, 2.44, 2.44, 2.54, 2.21, 3.6, 3.68, 5.93, 6.44, 7.76, 8.15, 8.72, 9.1, 9.2, 9.21, 9.6, 9.8, 9.56, 10.17, 13.68, 14.86, 12.04, 13.05, 13.81, 14.6, 15.02, 14.92, 16.03, 17.74, 19.59, 21.36, 21.14, 22.76, 11.29, -2.4, -2.98, 3.35, 7.44, 9.66, 10.51, 10.98, 10.71, 9.39, 7.82, 7.25, 6.48, 9.3, 8.74, 8.03, 7.11, 6.4, 5.63, 4.94, 4.32, 4.4, 4.01, 4.87, 5.63, 5.63, 5.63, -0.59, -0.59, -0.59, -0.59, -0.59, -0.59, -0.56, -0.56, -0.56, -0.56, 0.0, 0.0, 0.0, 0.54, 0.55, 0.56, 1.12, 1.12, 1.12, 0.57, 0.56, 0.56, 0.56, 0.57, 0.53, 0.0, 0.0, 0.0, 0.0, -0.54, -1.14, -1.69, -2.23, -1.16, 0.0, 0.0, 1.11, 1.65, 2.46, 1.65, 1.75, 2.46, 1.14, 2.4, 3.91, 5.37, 6.52, 6.52, 5.93, 6.28, 6.87, 7.07, 6.52, 5.6, 3.76, 3.4, 4.6, 8.01, 13.95, 15.02, 13.41, 11.57, 11.56, 12.6, 13.57, 13.57, 14.21, 13.76, 12.33, 13.95, 16.76, 16.35, 2.67, -0.0, 8.49, 12.86, 12.78, 11.62, 11.37, 10.35, 8.74, 6.35, 5.02, 4.31, 3.6, 5.45, 5.62, 5.45, 4.94, 4.81, 4.06, 4.23, 4.5, 5.09, 5.63, 4.8, 5.41, 5.41, -1.16, -1.16, -0.59, -0.59, -0.59, -0.59, -0.56, -0.56, -0.56, -0.56, 0.0, 0.0, 0.0, 0.58, 0.55, 1.1, 1.12, 1.12, 0.56, 0.56, 0.56, 0.59, 0.59, 0.56, 0.52, 0.0, 0.0, -0.56, -1.16, -1.69, -2.19, -2.19, -2.23, -1.16, 0.0, 0.76, 1.58, 1.75, 2.33, 1.14, 1.65, 1.65, 2.54, 3.91, 4.75, 5.06, 6.13, 5.59, 5.06, 4.74, 4.75, 5.03, 5.03, 3.68, 2.49, 1.1, 3.4, 6.98, 11.72, 12.39, 11.18, 9.75, 8.8, 8.72, 8.93, 9.1, 9.04, 9.17, 10.17, 12.13, 11.49, 11.17, 5.65, 6.16, 11.96, 14.11, 13.91, 12.19, 10.6, 9.54, 8.92, 7.27, 4.61, 3.11, 2.51, 2.41, 3.14, 3.96, 3.82, 4.06, 4.87, 4.87, 5.54, 5.77, 5.0, 4.31, 5.95, 5.95, -1.16, -1.16, -1.16, -1.16, -0.59, -0.59, -0.56, -0.56, -0.56, -0.56, 0.0, 0.0, 0.0, 0.55, 1.18, 1.1, 1.1, 0.56, 0.56, 0.56, 0.55, 0.55, 0.55, 0.55, 0.0, 0.0, -1.09, -1.69, -2.21, -2.86, -2.86, -2.89, -2.96, -2.46, 0.0, 0.0, 0.84, 1.14, 1.25, 1.25, 1.25, 2.35, 3.6, 3.72, 4.75, 5.06, 5.06, 5.37, 4.75, 3.68, 2.66, 2.4, 3.6, 2.4, 2.4, 2.21, 4.71, 5.72, 7.59, 9.08, 8.75, 7.56, 6.01, 6.01, 4.71, 4.83, 5.72, 5.46, 7.96, 9.37, 7.83, 5.47, 5.51, 9.27, 13.23, 14.5, 14.35, 13.15, 11.28, 9.76, 9.42, 7.88, 6.47, 4.48, 4.13, 3.36, 2.41, 4.01, 4.87, 4.87, 5.0, 5.09, 5.0, 5.2, 4.68, 5.18, 6.44, 6.44, -1.1, -1.16, -1.16, -1.16, -1.16, -1.16, -0.56, -0.56, -0.56, -0.56, 0.0, 0.0, 0.0, 0.55, 1.09, 1.18, 1.1, 1.1, 1.1, 1.09, 0.55, 0.58, 0.58, 0.54, 0.0, -0.55, -1.63, -1.73, -2.4, -2.75, -2.29, -2.16, -1.7, -1.07, 0.0, 0.0, 0.0, 1.32, 1.25, 1.18, 1.4, 2.66, 3.68, 3.68, 3.91, 4.75, 4.75, 4.75, 3.91, 3.4, 2.4, 2.4, 2.66, 1.18, 1.25, 2.54, 3.35, 4.66, 5.72, 6.69, 6.98, 6.4, 6.01, 4.96, 3.8, 3.4, 2.51, 1.32, 2.39, 2.31, 2.25, 4.21, 6.54, 9.49, 11.2, 11.19, 11.95, 12.08, 11.26, 9.85, 8.6, 8.07, 7.08, 5.2, 4.8, 4.25, 3.95, 4.13, 4.68, 5.72, 6.33, 5.51, 5.09, 5.0, 5.63, 6.31, 7.55, 7.55, -1.1, -1.16, -1.16, -1.16, -1.16, -1.11, -0.56, -0.56, -0.56, 0.0, 0.0, 0.0, 0.0, 0.55, 0.55, 0.81, 1.1, 1.1, 1.09, 1.07, 0.57, 0.0, 0.0, 0.0, 0.0, 0.0, 0.0, 0.0, 0.0, 0.0, 0.0, 0.0, 0.0, 0.0, 0.0, 0.0, 0.0, 0.58, 0.8, 1.2, 1.65, 1.84, 2.54, 3.6, 3.6, 3.6, 3.4, 3.4, 2.4, 2.54, 2.54, 2.54, 2.4, 2.26, 2.54, 3.35, 3.8, 6.01, 6.69, 6.98, 5.98, 5.98, 5.72, 4.12, 3.27, 2.54, 1.58, 0.0, -0.76, -1.13, 0.0, 4.2, 7.55, 8.26, 7.32, 5.67, 4.67, 4.85, 6.4, 6.4, 4.7, 4.85, 4.71, 4.32, 4.87, 4.01, 4.01, 3.76, 4.68, 5.2, 5.6, 5.4, 4.68, 5.09, 6.45, 7.73, 8.53, 8.53, -1.1, -1.16, -1.16, -1.16, -1.11, -1.11, -1.11, -0.56, -0.56, 0.0, 0.0, 0.0, 0.0, 0.55, 0.55, 0.55, 1.18, 1.18, 1.6, 0.85, 0.78, 0.55, 0.56, 0.81, 1.68, 1.6, 2.57, 2.23, 2.86, 2.86, 2.33, 1.69, 1.14, 0.54, 0.54, 0.57, 0.57, 0.54, 0.54, 0.57, 1.14, 1.69, 1.69, 2.23, 2.26, 2.33, 2.4, 2.4, 2.4, 2.54, 2.54, 2.54, 2.4, 2.54, 3.4, 3.91, 5.46, 4.94, 4.96, 5.98, 4.88, 4.66, 4.66, 4.66, 3.45, 3.45, 2.35, 1.56, 0.0, 0.0, 0.8, 4.26, 5.89, 3.97, 0.81, -1.57, -3.18, -3.26, 0.0, 1.57, 2.37, 2.32, 2.39, 2.44, 3.19, 3.53, 3.53, 3.68, 3.53, 4.15, 4.75, 4.75, 4.68, 5.41, 7.36, 8.66, 8.66, 8.66, -1.1, -1.16, -1.16, -1.16, -1.11, -1.11, -1.11, -0.56, -0.59, 0.0, 0.0, 0.0, 0.0, 0.55, 0.55, 0.55, 0.55, 0.55, 0.58, 0.78, 0.82, 1.07, 1.71, 1.69, 1.78, 2.19, 2.83, 2.97, 2.8, 2.77, 2.25, 1.71, 1.73, 1.11, 0.56, 0.56, 0.56, 0.56, 0.54, 0.57, 0.57, 1.14, 1.14, 1.71, 1.73, 2.33, 1.25, 1.25, 1.25, 1.32, 1.32, 1.25, 2.4, 3.4, 4.71, 4.83, 4.96, 4.46, 4.44, 3.52, 4.44, 4.44, 3.52, 3.52, 3.45, 3.15, 3.21, 3.16, 3.87, 3.98, 5.6, 7.52, 5.98, 0.0, -4.75, -7.27, -8.65, -8.0, -4.7, -1.59, 0.8, 2.39, 2.33, 2.88, 3.19, 3.19, 3.19, 3.68, 3.68, 3.39, 3.29, 4.17, 5.51, 6.62, 8.01, 8.66, 8.66, 8.66, -1.73, -1.16, -1.16, -1.16, -1.11, -1.11, -1.11, -1.18, -0.56, -0.56, 0.0, 0.0, 0.0, 0.0, 0.58, 0.58, 0.58, 0.54, 0.0, 0.56, 0.56, 1.12, 1.75, 1.65, 1.65, 1.65, 1.65, 1.73, 1.73, 1.63, 1.15, 1.1, 1.16, 0.56, 0.59, 0.0, 0.0, 0.0, 0.0, 0.54, 0.58, 0.58, 0.55, 1.18, 1.2, 1.12, 1.32, 0.0, 0.0, 0.0, 1.25, 1.25, 2.4, 3.4, 5.03, 4.96, 4.96, 4.96, 3.6, 3.91, 3.2, 3.27, 3.27, 3.27, 3.27, 4.12, 4.2, 4.25, 5.72, 8.16, 9.17, 12.87, 13.6, 3.04, -7.82, -7.27, -7.36, -7.44, -6.48, -2.81, 0.0, 2.93, 3.95, 3.87, 3.96, 3.82, 3.19, 3.19, 2.88, 2.95, 3.02, 4.23, 6.53, 7.67, 8.66, 8.58, 7.93, 7.93, -1.73, -1.73, -1.73, -1.16, -1.11, -1.11, -1.11, -1.12, -0.56, -0.54, 0.0, 0.0, 0.0, 0.0, 0.0, 0.0, 0.0, 0.0, 0.0, 0.56, 0.56, 0.56, 1.18, 1.11, 1.11, 1.11, 1.11, 1.11, 0.56, 0.59, 0.59, 0.59, 0.56, 0.0, 0.0, 0.0, 0.0, 0.0, 0.0, 0.0, 0.0, 0.59, 0.56, 0.61, 1.12, 1.14, 0.0, 0.0, 0.0, 0.0, 1.25, 1.25, 2.4, 3.6, 5.03, 4.71, 5.89, 6.24, 4.71, 2.6, 1.7, 2.64, 3.4, 3.4, 4.26, 4.12, 4.2, 4.2, 4.92, 6.2, 8.51, 10.46, 7.22, -2.53, -2.6, -0.85, -0.82, -2.31, -2.11, -1.42, 0.72, 3.2, 4.07, 3.95, 3.91, 3.25, 3.23, 2.37, 3.19, 3.29, 3.53, 5.09, 6.94, 8.31, 8.58, 7.77, 7.03, 7.03, -1.73, -1.73, -1.73, -1.73, -1.11, -1.11, -1.18, -0.56, -0.56, 0.0, 0.0, 0.0, 0.0, 0.0, 0.0, 0.0, 0.0, 0.0, 0.0, 0.56, 0.56, 0.56, 0.56, 0.56, 0.59, 0.56, 0.56, 0.56, 0.56, 0.56, 0.56, 0.56, 0.0, 0.0, 0.0, 0.0, 0.0, 0.0, 0.0, 0.0, 0.0, 0.0, 0.56, 0.57, 0.58, 0.0, 0.0, 0.0, 0.0, 0.0, 1.32, 2.54, 2.54, 3.6, 3.91, 5.03, 5.37, 6.64, 6.01, 3.45, 1.8, 2.0, 3.72, 5.24, 4.83, 4.71, 4.96, 4.6, 4.83, 5.06, 4.8, 3.45, 7.88, 4.71, 3.91, 2.46, 2.33, 0.0, 0.0, 0.0, 0.0, 0.71, 1.44, 1.4, 1.54, 0.81, 0.76, 1.6, 3.32, 4.75, 4.8, 6.29, 7.93, 7.77, 7.25, 7.25, 6.48, 6.48, -1.73, -1.73, -1.73, -1.73, -1.73, -1.11, -1.18, -0.56, -0.56, 0.0, 0.0, 0.0, 0.0, 0.0, 0.0, 0.0, 0.0, 0.0, 0.0, 0.0, 0.56, 0.56, 0.56, 0.56, 0.56, 0.56, 0.59, 0.56, 0.56, 0.56, 0.56, 0.56, 0.0, 0.0, 0.0, 0.0, 0.0, 0.0, 0.0, 0.0, 0.0, 0.0, 0.0, 0.0, 0.0, 0.0, -0.61, 0.0, 0.0, 0.0, 0.58, 1.11, 2.33, 2.54, 3.4, 4.75, 4.75, 5.06, 5.44, 5.03, 3.79, 2.84, 3.63, 4.42, 4.83, 4.71, 4.96, 4.83, 5.06, 2.31, 0.0, 0.0, 5.7, 9.91, 7.28, 4.71, 2.11, -0.8, -3.18, -3.14, -2.85, -2.09, -2.15, -1.44, -0.8, 0.0, 0.0, 1.54, 3.91, 7.19, 8.36, 7.19, 7.34, 7.01, 6.48, 5.9, 5.71, 5.71, -1.73, -1.73, -1.73, -1.73, -1.73, -1.11, -1.11, -0.56, -0.56, 0.0, 0.0, 0.0, 0.0, 0.0, 0.0, 0.0, 0.0, 0.0, 0.0, 0.0, 0.56, 0.56, 0.56, 0.56, 0.56, 0.56, 0.59, 0.56, 0.56, 0.56, 0.56, 0.56, 0.0, 0.0, 0.0, 0.0, 0.0, 0.0, 0.0, 0.0, 0.0, 0.0, 0.0, 0.0, 0.0, 0.0, -0.56, -0.55, -0.54, 0.0, 0.0, 0.0, 0.0, 1.2, 3.6, 4.75, 5.06, 4.02, 4.75, 5.69, 4.75, 4.29, 3.63, 3.72, 4.42, 4.83, 5.89, 5.76, 4.6, 2.34, 0.78, 1.11, 4.01, 10.21, 12.73, 11.49, 7.38, 0.0, -4.71, -7.38, -7.13, -6.6, -5.64, -4.37, -2.81, -0.81, 0.8, 3.29, 6.33, 7.93, 8.61, 8.01, 7.03, 5.71, 5.71, 5.55, 5.63, 5.63, -1.73, -1.73, -1.73, -1.73, -1.65, -1.11, -1.11, -1.18, -0.56, -0.56, 0.0, 0.0, 0.0, 0.0, 0.0, 0.0, 0.0, 0.0, 0.0, 0.0, 0.56, 0.56, 0.56, 0.56, 0.56, 0.56, 0.56, 0.56, 0.56, 0.56, 0.56, 0.0, 0.0, 0.0, 0.0, 0.0, 0.0, 0.0, 0.0, 0.0, 0.0, 0.0, 0.0, 0.0, 0.0, -0.56, -0.59, -1.16, -1.16, -1.14, -0.57, -0.56, 0.0, 0.55, 2.4, 4.16, 4.75, 4.02, 4.11, 4.29, 4.71, 4.03, 3.91, 3.47, 5.03, 4.95, 5.59, 4.83, 3.95, 3.19, 1.55, 0.79, 2.34, 6.46, 11.62, 13.25, 12.0, 6.58, -0.82, -7.42, -8.42, -7.44, -6.44, -4.24, -2.06, 0.7, 3.91, 7.12, 7.79, 7.69, 7.25, 6.51, 6.28, 5.38, 5.71, 5.81, 5.72, 5.72, -1.73, -1.73, -1.73, -1.73, -1.65, -1.11, -1.11, -1.18, -0.56, -0.56, 0.0, 0.0, 0.0, 0.0, 0.0, 0.0, 0.0, 0.0, 0.0, 0.0, 0.54, 0.54, 0.56, 0.56, 0.56, 0.56, 0.0, 0.0, 0.0, 0.0, 0.0, 0.0, 0.0, 0.0, 0.0, 0.0, 0.0, 0.0, 0.0, 0.0, 0.0, 0.0, 0.0, 0.0, 0.0, -0.59, -1.16, -1.16, -1.69, -1.69, -1.69, -1.12, -0.57, 0.0, 2.29, 4.16, 5.06, 4.74, 4.11, 4.01, 4.03, 3.91, 3.2, 4.29, 5.06, 6.01, 4.96, 3.32, 2.39, 2.44, 1.57, 0.82, 0.0, 0.79, 3.22, 4.74, 5.75, 9.32, 6.24, -0.82, -5.75, -3.64, -1.58, 0.0, 2.17, 5.0, 7.19, 7.93, 7.93, 6.4, 5.55, 5.62, 6.17, 5.63, 5.81, 5.1, 5.02, 5.02, -1.73, -1.73, -1.73, -1.65, -1.65, -1.11, -1.18, -1.12, -0.56, -0.56, -0.54, 0.0, 0.0, 0.0, 0.0, 0.0, 0.0, 0.0, 0.0, 0.0, 0.57, 0.54, 0.56, 0.56, 0.56, 0.0, 0.0, 0.0, 0.56, 0.0, 0.0, 0.0, 0.0, 0.0, 0.0, 0.0, 0.0, 0.0, 0.0, 0.0, 0.0, 0.0, 0.0, 0.0, 0.0, 0.0, -1.09, -1.71, -2.23, -2.21, -1.69, -1.69, -0.58, 0.56, 2.14, 2.82, 5.06, 4.74, 4.54, 4.11, 3.33, 3.4, 3.55, 4.58, 4.95, 5.1, 4.6, 2.57, 0.81, 0.0, 0.79, 0.0, -0.8, -3.28, -4.81, -3.96, -1.6, 3.18, 8.18, 5.65, 0.0, -1.16, 0.51, 3.22, 6.71, 6.94, 7.11, 7.01, 6.28, 5.62, 4.91, 4.81, 5.02, 5.1, 4.87, 4.95, 4.3, 4.3, -2.28, -2.28, -1.65, -1.65, -1.65, -1.18, -1.18, -1.12, -0.56, -0.56, -0.56, 0.0, 0.0, 0.0, 0.0, 0.0, 0.0, 0.0, 0.0, 0.0, 0.0, 0.57, 0.57, 0.54, 0.0, 0.0, 0.0, 0.54, 0.54, 0.0, 0.0, 0.0, 0.0, 0.0, 0.0, 0.0, 0.0, 0.0, 0.0, 0.0, 0.0, 0.0, -0.57, -0.57, -0.56, 0.0, -0.85, -1.63, -1.63, -1.18, 0.0, 0.55, 0.55, 1.73, 2.29, 2.82, 2.86, 3.16, 4.19, 3.35, 2.47, 2.35, 3.33, 4.29, 4.42, 4.26, 4.6, 3.45, 0.0, -1.6, -0.8, 0.0, 0.79, -1.6, -6.35, -7.27, -4.67, -1.57, 2.38, 5.75, 3.16, 0.54, 1.7, 3.45, 4.83, 6.57, 6.48, 5.81, 4.87, 4.18, 4.18, 3.98, 3.57, 4.85, 4.3, 3.57, 3.57, 3.57, -2.28, -2.28, -1.65, -1.65, -1.75, -1.18, -1.12, -1.12, -0.56, -0.56, -0.56, -0.54, 0.0, 0.0, 0.0, 0.0, 0.0, 0.0, 0.0, 0.0, 0.0, 0.0, 0.0, 0.0, 0.0, 0.0, 0.0, 0.57, 0.57, 0.0, 0.0, 0.0, 0.0, 0.0, 0.0, 0.0, 0.0, 0.0, 0.0, 0.0, -0.56, -0.56, -0.56, -1.1, -1.1, -0.8, -0.85, -0.56, 0.0, 0.0, 0.55, 1.16, 1.69, 2.23, 2.26, 2.32, 2.84, 3.15, 3.16, 2.76, 2.6, 2.8, 3.72, 3.55, 3.2, 2.51, 2.4, 3.3, 2.28, 0.0, -1.67, 0.0, 2.4, 2.38, -3.16, -6.6, -4.87, -3.07, -1.59, 0.8, 2.99, 3.65, 2.9, 3.32, 3.94, 4.57, 4.51, 4.95, 4.24, 3.62, 2.8, 2.11, 2.17, 2.08, 2.88, 2.88, 2.88, 2.88, -2.17, -2.17, -1.65, -1.75, -1.75, -1.12, -1.12, -1.12, -1.12, -0.56, -0.56, -0.54, 0.0, 0.0, 0.0, 0.0, 0.0, 0.0, 0.0, 0.0, 0.0, 0.0, 0.0, 0.0, 0.0, 0.0, 0.0, 0.54, 0.0, 0.0, 0.0, 0.0, 0.0, 0.0, 0.0, 0.0, 0.0, 0.0, 0.0, 0.0, -0.57, -0.61, -0.56, -1.1, -1.18, -1.71, -1.16, 0.0, 0.0, 0.58, 1.14, 1.14, 1.2, 1.14, 1.09, 2.14, 2.82, 2.86, 2.86, 2.48, 2.76, 2.6, 2.47, 2.2, 1.73, 0.83, 0.0, 0.0, 1.09, 1.14, 0.0, 0.0, 1.15, 3.31, 0.8, -3.17, -4.13, -1.58, -1.57, -0.72, 1.44, 4.34, 5.09, 3.99, 4.02, 3.84, 3.96, 3.44, 3.22, 2.15, 1.42, 0.71, 0.0, 0.73, 1.39, 1.39, 1.39, 1.39, -2.3, -2.3, -1.75, -1.75, -1.75, -1.12, -1.12, -1.12, -1.12, -0.56, -0.56, -0.57, 0.0, 0.0, 0.0, 0.0, 0.0, 0.0, 0.0, 0.0, 0.0, 0.0, 0.0, 0.0, 0.0, 0.0, 0.0, 0.58, 0.0, 0.0, 0.0, 0.0, 0.55, 0.55, 1.1, 1.1, 0.61, 0.57, 0.0, 0.0, 0.0, -0.61, -0.56, -1.1, -1.18, -1.16, -1.16, -0.54, 0.0, 0.0, 0.0, 0.56, 0.57, 0.54, 1.18, 1.65, 2.36, 2.84, 2.86, 2.48, 2.48, 2.6, 2.49, 1.72, 1.63, 0.79, 0.0, -0.84, 0.0, 1.18, 1.56, 0.79, 0.0, 0.0, 0.82, 0.0, -0.82, 0.0, 0.0, 0.0, 1.43, 3.61, 4.29, 4.35, 3.41, 2.77, 2.32, 1.68, 0.77, 0.0, 0.0, 0.0, -0.72, -0.71, -0.73, 0.0, 0.0, 0.0, -1.75, -1.75, -1.75, -1.75, -1.12, -1.12, -1.12, -1.12, -1.12, -0.56, -0.54, -0.57, 0.0, 0.0, 0.0, 0.0, 0.0, 0.0, 0.0, 0.0, 0.0, 0.0, 0.0, 0.0, 0.0, 0.0, 0.0, 0.0, 0.0, 0.0, 0.58, 0.58, 1.09, 1.18, 1.1, 1.2, 0.57, 0.57, 0.57, 0.0, 0.0, 0.0, -0.56, -0.59, -0.55, -1.16, -1.16, -0.58, -0.54, 0.0, 0.0, 0.0, 0.0, 0.58, 1.1, 1.65, 2.32, 2.84, 2.86, 2.48, 2.8, 2.8, 2.32, 2.49, 1.72, 0.89, 0.0, 0.0, 0.0, 0.0, 1.63, 1.16, 0.0, -1.57, 0.0, 3.18, 2.3, 0.79, 0.0, 0.0, 0.0, 0.72, 1.43, 2.14, 2.08, 1.12, 0.56, 0.0, 0.0, -0.77, -1.56, -1.59, -2.15, -2.21, -2.11, -0.7, -0.73, -0.73, -1.75, -1.75, -1.75, -1.67, -1.12, -1.12, -1.12, -1.12, -0.56, -0.56, -0.54, -0.57, -0.57, -0.57, -0.57, 0.0, 0.0, 0.0, 0.0, 0.0, 0.0, 0.0, 0.0, 0.0, 0.0, 0.0, 0.0, 0.0, 0.0, 0.59, 0.55, 0.55, 0.55, 0.59, 0.56, 0.57, 0.57, 0.0, 0.0, 0.0, 0.0, 0.0, -0.59, -0.55, -0.55, -0.58, -1.16, -1.07, -1.07, -0.57, -0.57, 0.0, 0.0, 0.55, 1.1, 1.76, 2.32, 2.84, 2.86, 1.8, 1.8, 2.8, 2.8, 1.32, 1.18, 1.25, 0.84, 0.0, 0.0, 0.79, 1.42, 2.24, 0.0, 0.0, 0.0, 3.14, 4.04, 2.34, 0.0, -0.79, -1.46, -0.72, -0.72, 0.0, 0.0, 0.0, 0.0, -0.77, -1.53, -2.21, -2.32, -2.98, -3.13, -3.52, -4.3, -3.62, -2.17, -2.17, -1.75, -1.75, -1.75, -1.67, -1.12, -1.12, -1.12, -1.12, -0.56, -0.56, -0.54, -0.57, -0.57, -0.57, -0.57, -0.57, 0.0, 0.0, 0.0, 0.0, 0.0, 0.0, 0.0, 0.0, 0.0, 0.0, 0.0, 0.0, 0.0, 0.0, 0.0, 0.0, 0.0, 0.0, 0.0, 0.0, 0.0, 0.0, 0.0, 0.0, -0.57, -0.56, -0.59, -0.55, -1.09, -1.16, -1.16, -1.14, -1.14, -1.14, -0.57, 0.0, 0.0, 1.09, 1.73, 2.29, 2.8, 2.82, 2.2, 1.76, 1.58, 1.11, 1.23, 0.82, 0.83, 1.14, 0.84, 0.77, 0.0, 0.82, 1.16, 1.6, 2.21, 1.57, 0.79, 1.56, 3.18, 3.14, 0.8, 0.0, -0.72, -1.4, -1.43, -1.4, -1.45, -1.42, -1.51, -2.25, -2.25, -2.25, -2.98, -3.75, -3.95, -4.81, -4.24, -5.02, -3.62, -3.62, -1.75, -1.75, -1.67, -1.67, -1.12, -1.12, -1.12, -1.12, -0.56, -0.56, -0.56, -0.54, -0.57, -0.57, -0.57, -0.54, 0.0, 0.0, 0.0, 0.0, 0.0, 0.0, 0.0, 0.0, 0.0, 0.0, 0.0, 0.0, 0.0, 0.0, 0.0, 0.0, 0.0, 0.0, 0.0, 0.0, 0.0, 0.0, 0.0, -0.58, -0.57, -0.56, -0.56, -0.8, -1.18, -1.71, -1.71, -1.69, -1.69, -1.14, -0.54, 0.0, 1.18, 1.73, 2.26, 2.26, 2.29, 2.82, 2.44, 1.76, 1.23, 1.11, 1.23, 0.82, 0.83, 0.0, 0.0, 0.0, 0.0, 0.0, 0.79, 1.54, 3.42, 3.3, 1.6, 0.0, 0.0, 0.81, 0.79, 0.71, 1.4, 0.72, 0.0, -1.41, -1.46, -1.43, -1.38, -1.45, -2.23, -2.3, -3.04, -2.95, -3.83, -3.83, -4.76, -4.95, -5.02, -4.3, -1.67, -1.67, -1.67, -1.67, -1.67, -1.12, -1.12, -1.12, -1.12, -0.56, -0.56, -1.12, -1.14, -1.14, -0.57, -0.54, 0.0, 0.0, 0.0, 0.0, 0.0, 0.0, 0.0, 0.0, 0.0, 0.0, 0.0, 0.0, 0.0, 0.0, 0.0, 0.0, 0.0, 0.0, 0.0, 0.0, 0.0, 0.0, -0.58, -0.58, -1.12, -1.2, -1.2, -0.89, -0.59, -1.16, -1.71, -1.81, -1.69, -0.58, 0.0, 1.18, 1.73, 1.73, 2.4, 2.26, 2.29, 2.32, 2.2, 1.73, 1.08, 1.23, 1.23, 0.82, 0.83, 0.0, 0.0, 0.0, 0.0, 0.0, 0.0, 1.18, 2.28, 3.96, 4.08, 0.82, -1.61, -1.6, 0.0, 0.73, 2.12, 2.16, 0.72, 0.0, 0.0, -0.69, -0.7, -0.73, -1.5, -1.5, -2.23, -2.23, -3.1, -3.1, -4.04, -3.53, -4.44, -5.02, -1.67, -1.67, -1.67, -1.67, -1.67, -1.12, -1.12, -1.12, -1.12, -1.12, -1.12, -1.12, -1.14, -1.14, -0.54, -0.58, 0.0, 0.0, 0.0, 0.0, 0.0, 0.0, 0.0, 0.0, -0.57, -0.58, -0.56, -0.57, -0.57, -0.57, -0.57, -0.57, 0.0, 0.0, 0.0, 0.0, 0.0, -0.58, -0.58, -1.14, -1.14, -1.12, -1.12, -1.12, -1.58, -1.16, -1.71, -1.71, -0.55, 0.0, 1.18, 1.73, 2.26, 1.73, 1.73, 1.73, 2.29, 2.18, 2.2, 1.73, 1.08, 1.08, 0.55, 0.0, 0.0, 0.0, 0.0, 0.0, 0.0, 0.0, 0.81, 0.78, 1.13, 3.37, 6.91, 5.61, 0.81, -1.57, -0.79, 0.0, 1.46, 1.48, 1.4, 0.72, 0.0, 0.0, 0.0, -0.74, -0.74, -1.51, -1.51, -2.3, -2.3, -3.2, -3.1, -3.1, -3.64, -4.44, -1.67, -1.67, -1.67, -1.67, -1.67, -1.12, -1.12, -1.12, -1.12, -1.12, -1.12, -1.2, -1.14, -1.14, -0.58, 0.0, 0.0, 0.0, 0.0, 0.0, 0.0, 0.0, 0.0, 0.0, -0.57, -0.58, -1.1, -1.12, -1.14, -1.14, -0.57, -0.57, -0.53, -0.58, -0.53, -0.53, -0.53, -0.53, -0.58, -1.14, -1.14, -1.8, -1.8, -1.65, -2.29, -2.44, -1.09, -0.59, 0.0, 0.55, 1.09, 1.73, 1.73, 1.73, 1.73, 1.73, 1.76, 2.36, 1.73, 1.73, 1.19, 0.55, 0.0, 0.0, 0.0, 0.0, 0.0, 0.0, 0.0, 0.0, 0.81, 0.78, 1.16, 2.2, 5.78, 9.0, 7.11, 3.13, 0.8, 0.8, 1.44, 1.43, 1.42, 1.42, 0.71, 0.0, -0.74, -1.53, -1.53, -2.28, -2.21, -3.07, -2.98, -3.13, -3.2, -3.1, -3.95, -3.95, -2.19, -2.19, -1.67, -1.67, -1.67, -1.12, -1.12, -1.12, -1.12, -1.12, -1.12, -1.2, -1.14, -0.54, 0.0, 0.0, 0.0, 0.0, 0.0, 0.0, 0.0, 0.0, 0.0, -0.54, -0.57, -1.07, -1.18, -1.12, -1.14, -1.14, -1.14, -1.12, -0.58, -0.58, -0.53, -0.59, -0.59, -0.53, -1.14, -1.14, -1.67, -1.8, -1.8, -2.29, -2.96, -2.4, -1.09, -0.55, 0.0, 0.58, 1.16, 1.09, 1.73, 1.18, 1.18, 1.73, 2.32, 1.7, 1.88, 1.19, 1.19, 0.61, 0.55, 0.0, 0.0, 1.25, 1.25, 0.0, 0.84, 0.85, 0.81, 0.85, 0.0, 1.58, 2.28, 4.67, 8.08, 9.0, 7.15, 5.62, 4.31, 2.15, 0.69, 0.0, 0.0, -0.8, -1.53, -2.23, -3.09, -3.83, -3.83, -4.62, -4.5, -4.71, -4.66, -4.66, -4.66, -4.66, -2.19, -2.19, -1.67, -1.67, -1.67, -1.67, -1.12, -1.12, -1.12, -1.12, -1.12, -1.12, -0.57, -0.54, 0.0, 0.0, 0.0, 0.0, 0.0, 0.0, 0.0, -0.58, -0.58, -0.54, -1.14, -1.14, -1.16, -1.1, -1.8, -1.67, -1.67, -1.67, -1.14, -1.14, -0.53, -0.59, -0.59, -1.05, -1.14, -1.14, -1.67, -1.8, -2.32, -2.29, -2.96, -2.26, -1.61, -0.58, 0.0, 0.54, 1.16, 1.09, 1.18, 1.18, 1.18, 1.1, 1.8, 1.7, 1.7, 1.19, 0.54, 0.54, 0.0, 0.0, 1.32, 1.18, 1.25, 1.32, 1.55, 1.58, 0.85, 0.81, 0.0, 0.8, 0.78, 1.62, 5.65, 9.8, 11.49, 11.28, 9.63, 5.72, 2.14, 0.0, -1.47, -2.21, -3.09, -3.83, -4.54, -5.23, -5.46, -5.98, -5.98, -5.67, -5.51, -5.51, -5.51, -5.51, -2.19, -2.19, -1.67, -1.67, -1.67, -1.67, -1.67, -1.67, -1.12, -1.12, -1.12, -1.14, -0.57, 0.0, 0.0, 0.0, 0.0, 0.0, 0.0, 0.0, -0.58, -0.58, -0.58, -1.07, -1.14, -1.14, -1.16, -1.73, -1.65, -1.8, -1.67, -1.67, -1.67, -1.67, -1.14, -1.05, -1.05, -1.14, -1.14, -1.67, -1.67, -2.32, -2.32, -3.0, -2.77, -2.44, -1.73, -0.58, 0.0, 0.0, 0.58, 1.09, 1.18, 1.18, 1.1, 1.65, 1.8, 1.7, 1.16, 1.07, 0.54, 0.54, 0.0, 0.0, 1.4, 1.4, 1.18, 0.83, 1.65, 1.75, 1.26, 0.0, 0.0, 0.0, 0.77, 1.55, 3.95, 6.47, 9.76, 12.34, 14.21, 12.09, 7.93, 2.84, 0.0, -2.16, -3.62, -5.23, -6.14, -6.89, -6.52, -6.8, -7.0, -7.32, -7.11, -7.11, -7.11, -7.11, -1.78, -1.78, -1.78, -1.78, -1.67, -1.67, -1.67, -1.67, -1.12, -1.12, -1.12, -0.57, -0.57, 0.0, 0.0, 0.0, 0.0, 0.0, 0.0, 0.0, -0.58, -0.58, -1.16, -1.07, -1.14, -1.14, -1.71, -1.61, -1.63, -1.65, -2.32, -2.32, -2.32, -2.16, -1.67, -1.14, -1.14, -1.14, -1.14, -1.67, -2.32, -2.32, -2.8, -3.0, -2.77, -2.29, -1.18, -0.55, 0.0, 0.0, 0.55, 1.09, 1.18, 1.1, 1.2, 1.12, 1.14, 1.16, 1.16, 1.07, 0.54, 0.59, 0.0, 0.0, 0.61, 1.4, 0.0, 0.0, 0.0, 0.0, 0.0, 0.0, 0.0, 0.0, 0.76, 1.64, 3.14, 4.66, 7.2, 9.67, 12.09, 14.29, 12.59, 8.7, 5.09, 0.71, -2.15, -5.57, -7.2, -8.67, -8.43, -7.93, -8.61, -8.61, -8.61, -8.06, -8.06, -8.06, -1.78, -1.78, -1.78, -1.78, -1.78, -1.67, -1.67, -1.67, -1.12, -1.12, -1.12, -0.57, -0.57, 0.0, 0.0, 0.0, 0.0, 0.0, 0.0, -0.54, -0.54, -1.16, -1.16, -1.16, -1.07, -1.71, -1.71, -1.71, -1.73, -2.29, -2.14, -2.8, -2.8, -2.16, -1.84, -1.7, -1.67, -1.67, -1.8, -2.32, -2.32, -2.8, -2.8, -3.0, -2.29, -1.76, -1.1, -0.59, 0.0, 0.0, 0.59, 1.18, 1.1, 1.2, 1.12, 1.12, 1.14, 1.16, 1.16, 1.07, 0.59, 0.59, 0.0, 0.54, 0.55, 0.0, 0.0, 0.0, 0.0, 0.0, 0.0, 0.0, 0.0, 0.0, 0.79, 1.63, 2.37, 4.0, 5.55, 7.01, 8.74, 10.86, 12.59, 13.54, 11.17, 6.44, 1.44, -2.91, -6.43, -9.31, -8.84, -9.31, -9.31, -9.22, -9.22, -9.22, -9.22, -9.22, -2.33, -2.33, -1.78, -1.69, -1.78, -1.78, -1.67, -1.12, -1.12, -1.12, -1.12, -0.57, -0.57, 0.0, 0.0, 0.0, 0.0, 0.0, -0.54, -0.54, -0.54, -1.16, -1.16, -1.16, -1.71, -1.71, -1.71, -1.71, -2.26, -2.26, -2.29, -2.77, -2.32, -2.36, -2.18, -2.18, -2.36, -2.32, -2.32, -2.32, -2.8, -2.8, -2.8, -2.8, -2.32, -1.76, -1.1, -0.56, 0.0, 0.0, 0.56, 1.1, 1.2, 1.12, 0.57, 0.57, 1.14, 1.16, 1.07, 0.54, 0.59, 0.59, 0.54, 0.61, 0.55, 0.0, 0.0, 0.0, 0.0, 0.0, 0.0, 0.0, 0.0, 0.0, 0.82, 1.56, 1.7, 3.32, 4.65, 5.48, 6.28, 8.07, 12.32, 14.51, 12.86, 9.4, 4.95, 1.43, -6.58, -9.57, -10.58, -10.18, -10.18, -10.18, -9.8, -10.12, -10.12, -10.12, -1.78, -1.78, -1.69, -1.69, -1.69, -1.78, -1.78, -1.12, -1.12, -1.12, -0.56, -0.57, -0.57, 0.0, 0.0, 0.0, 0.0, -0.54, -0.54, -0.54, -1.07, -1.16, -1.16, -1.71, -1.71, -1.71, -1.71, -2.23, -2.23, -2.26, -2.26, -2.32, -2.36, -2.18, -2.4, -2.36, -2.82, -3.04, -2.8, -2.8, -3.0, -3.0, -3.0, -2.8, -2.14, -1.2, -1.1, -0.56, 0.0, 0.0, 0.0, 0.61, 0.57, 0.57, 0.57, 0.58, 1.05, 1.16, 1.07, 0.54, 0.59, 0.0, 0.0, 0.0, 0.55, 0.0, 0.82, 0.83, 0.83, 0.0, 0.0, 0.0, 0.0, 0.0, 0.0, 0.82, 1.69, 2.41, 4.17, 4.75, 5.48, 7.32, 10.23, 12.34, 11.29, 8.26, 3.58, 1.45, -1.45, -5.72, -8.55, -10.29, -10.28, -9.9, -9.9, -9.85, -9.85, -9.85, -1.69, -1.69, -1.69, -1.69, -1.69, -1.69, -1.2, -1.2, -1.12, -1.12, -0.54, -0.57, -0.57, -0.57, -0.57, -0.57, -0.57, -0.57, -0.57, -1.14, -1.07, -1.16, -1.71, -1.71, -1.71, -1.71, -1.71, -2.23, -2.23, -2.26, -2.29, -2.16, -2.18, -2.4, -2.4, -2.82, -2.82, -2.82, -3.04, -2.8, -3.45, -3.45, -3.0, -2.8, -1.65, -1.2, -0.61, -0.57, 0.0, 0.0, 0.0, 0.57, 0.57, 0.53, 0.58, 0.58, 0.59, 0.54, 0.54, 0.54, 0.59, 0.0, 0.0, 0.0, 0.0, 0.0, 0.88, 0.82, 0.83, 0.0, 0.0, 0.0, -0.8, 0.0, 0.0, 0.0, 0.82, 1.62, 2.49, 4.01, 4.75, 5.48, 7.23, 8.2, 7.17, 3.63, 2.88, 2.91, 2.15, 0.0, -3.0, -6.68, -9.19, -10.29, -9.92, -9.92, -9.92, -9.92, -1.69, -1.69, -1.69, -1.69, -1.69, -1.69, -1.14, -1.14, -1.2, -1.14, -1.14, -0.57, -0.57, -0.57, -0.57, -0.57, -0.57, -0.57, -1.14, -1.14, -1.07, -1.16, -1.71, -1.71, -1.71, -1.71, -2.23, -2.23, -2.73, -2.26, -2.14, -1.84, -2.4, -2.84, -2.84, -2.82, -2.82, -2.82, -3.04, -3.22, -3.45, -3.45, -3.45, -2.8, -2.14, -1.12, -0.57, -0.57, 0.0, 0.0, 0.0, 0.57, 0.57, 0.58, 0.58, 0.53, 0.59, 0.54, 0.61, 0.54, 0.0, 0.0, 0.0, 0.0, 0.0, 0.0, 0.0, 0.0, 0.0, 0.0, 0.0, 0.0, 0.0, -0.84, -0.85, 0.0, 0.0, 0.78, 1.62, 2.31, 3.29, 4.06, 4.1, 3.9, 2.24, 1.47, 2.16, 2.21, 1.43, 1.39, 0.0, -2.12, -6.01, -8.43, -8.67, -8.68, -8.68, -8.68, -1.69, -1.69, -1.69, -1.69, -1.69, -1.69, -1.14, -1.14, -1.14, -1.14, -1.14, -0.57, -0.57, -0.57, -0.57, -0.57, -1.14, -1.14, -1.14, -1.07, -1.16, -1.71, -1.71, -1.71, -1.71, -2.23, -2.23, -2.89, -2.73, -2.29, -1.67, -1.7, -2.4, -2.84, -2.84, -3.08, -2.82, -3.04, -3.47, -3.45, -3.45, -3.45, -3.45, -3.0, -2.14, -1.12, -0.58, 0.0, 0.0, 0.0, 0.0, 0.0, 0.57, 0.58, 0.58, 0.53, 0.59, 0.61, 0.61, 0.54, 0.0, 0.0, 0.0, 0.0, 0.0, 0.0, 0.0, 0.0, 0.0, 0.0, 0.0, 0.0, 0.0, 0.0, -0.89, -0.8, 0.0, 0.81, 0.78, 1.62, 2.49, 2.51, 2.45, 0.79, 1.47, 2.19, 1.44, 0.74, 0.0, 0.0, 0.0, 0.0, 0.0, -2.53, -3.22, -4.16, -4.16, -4.16, -1.69, -1.69, -1.69, -1.69, -1.69, -1.69, -1.14, -1.14, -1.14, -1.14, -1.14, -1.14, -1.14, -1.14, -1.14, -1.14, -1.14, -1.14, -1.07, -1.16, -1.71, -1.71, -1.71, -1.71, -2.23, -2.23, -2.23, -2.89, -2.92, -2.29, -1.67, -1.7, -2.18, -2.84, -2.84, -3.49, -3.22, -3.47, -3.72, -3.85, -3.85, -3.85, -3.45, -3.0, -1.65, -1.14, -0.53, 0.0, 0.0, 0.0, 0.0, 0.0, 0.0, 0.58, 0.58, 0.59, 0.54, 0.61, 0.61, 0.0, 0.0, 0.0, 0.0, 0.0, 0.0, 0.0, 0.0, 0.0, 0.0, 0.0, 0.0, 0.0, 0.0, 0.0, 0.83, 0.0, 0.0, 0.85, 0.81, 0.81, 1.68, 1.69, 2.39, 3.13, 3.72, 3.66, 1.43, 0.0, -0.71, -1.36, 0.0, 2.9, 5.24, 4.95, 3.4, 2.44, 2.44, 2.44, -1.69, -1.69, -1.69, -1.69, -1.69, -1.69, -1.69, -1.14, -1.14, -1.14, -1.14, -1.14, -1.14, -1.14, -1.14, -1.14, -1.14, -1.07, -1.16, -1.71, -1.71, -1.71, -1.71, -2.23, -2.23, -2.23, -2.89, -2.89, -2.92, -2.29, -2.16, -2.36, -2.18, -2.84, -2.84, -3.22, -3.49, -3.84, -4.12, -4.12, -4.1, -4.1, -4.1, -2.77, -1.14, -0.53, 0.0, 0.0, 0.0, 0.0, 0.0, 0.0, 0.0, 0.0, 0.0, 0.59, 0.54, 0.61, 0.0, 0.0, 0.0, 0.0, 0.0, 0.0, 0.0, 0.0, 0.0, 0.0, 0.0, 0.0, 0.0, 0.0, 0.0, 0.0, 0.89, 0.89, 0.79, 0.8, 0.85, 0.85, 0.85, 1.68, 3.2, 5.6, 6.4, 4.85, 1.61, 0.0, -0.73, 0.0, 4.46, 7.33, 8.65, 7.82, 7.36, 5.95, 5.95, 5.95, -1.69, -1.69, -1.69, -1.69, -1.69, -1.69, -1.69, -1.14, -1.14, -1.14, -1.14, -1.14, -1.14, -1.14, -1.14, -1.14, -1.07, -1.16, -1.71, -1.71, -1.71, -1.71, -1.71, -2.23, -2.23, -2.23, -2.89, -2.73, -2.75, -2.32, -2.16, -2.36, -2.18, -2.84, -3.12, -3.22, -3.49, -3.84, -4.12, -4.12, -4.47, -4.75, -3.84, -2.14, -0.53, 0.0, 0.0, 0.0, 0.0, 0.0, 0.0, 0.0, 0.0, 0.0, 0.0, 0.0, 0.54, 0.0, 0.0, 0.0, 0.0, 0.0, 0.0, 0.0, 0.0, 0.0, 0.0, 0.0, -0.57, -0.81, -0.82, 0.0, 0.0, 0.0, 0.0, 0.0, 0.0, 0.0, 0.0, 0.0, 0.8, 1.62, 2.45, 3.93, 4.69, 3.18, 1.43, 0.0, 1.45, 4.81, 7.54, 9.21, 9.2, 8.01, 7.24, 6.45, 6.45, 6.45, -1.69, -1.69, -1.69, -1.69, -1.69, -1.69, -1.69, -1.69, -1.14, -1.14, -1.14, -1.14, -1.14, -1.14, -1.14, -1.07, -1.16, -1.71, -1.71, -1.71, -1.71, -1.71, -1.71, -2.23, -2.23, -2.89, -2.89, -2.92, -2.96, -2.32, -2.16, -2.36, -2.84, -2.84, -3.12, -3.22, -3.49, -3.84, -4.12, -4.45, -4.75, -4.75, -3.42, -1.67, 0.0, 0.0, 0.0, 0.0, 0.0, 0.0, 0.0, 0.0, 0.0, 0.0, 0.0, 0.0, 0.0, 0.0, 0.0, 0.0, 0.0, 0.0, 0.0, 0.0, -0.55, -0.59, -0.53, -1.24, -1.2, -1.66, -0.96, -0.89, -0.78, 0.0, 0.0, 0.0, -0.79, 0.0, 0.0, 0.0, 0.0, 0.78, 0.8, 1.59, 1.57, 0.81, 0.0, 0.72, 3.51, 7.33, 8.24, 8.22, 8.09, 7.38, 6.33, 5.72, 5.72, 5.72, -2.21, -2.21, -1.69, -1.69, -1.69, -1.69, -1.69, -1.69, -1.14, -1.14, -1.14, -1.14, -1.14, -1.14, -1.14, -1.71, -1.71, -1.71, -1.71, -1.71, -1.71, -1.71, -2.23, -2.23, -2.23, -2.89, -2.89, -2.92, -2.77, -2.16, -2.16, -2.36, -2.84, -3.12, -3.49, -3.49, -3.49, -3.84, -4.12, -4.75, -5.08, -4.47, -2.77, -1.14, 0.0, 0.0, -0.59, -0.58, 0.0, 0.0, 0.0, 0.0, 0.0, 0.0, 0.0, 0.0, 0.0, 0.0, 0.0, 0.0, 0.0, 0.0, 0.0, 0.0, -0.55, -0.57, -1.13, -1.16, -1.88, -1.83, -1.7, -1.6, -0.89, -0.89, -0.83, -0.89, -0.84, -0.84, -0.84, 0.0, 0.0, 0.0, 0.0, 0.0, 0.0, 0.0, 0.0, 2.13, 4.87, 7.15, 7.44, 7.09, 6.53, 5.6, 5.6, 4.75, 4.75, 4.75, -2.21, -2.21, -1.69, -1.69, -1.69, -1.69, -1.69, -1.69, -1.69, -1.69, -1.69, -1.69, -1.69, -1.69, -1.71, -1.71, -1.71, -1.71, -1.71, -1.71, -1.61, -1.71, -2.23, -2.23, -2.73, -2.89, -2.73, -2.75, -2.32, -2.16, -2.16, -2.36, -2.84, -3.12, -3.49, -3.49, -3.49, -3.84, -4.12, -5.08, -5.1, -4.47, -2.29, -1.05, -0.54, -0.54, -0.59, -0.58, 0.0, 0.0, 0.0, 0.0, 0.0, 0.0, 0.0, 0.0, 0.0, 0.0, 0.0, 0.0, 0.0, 0.0, 0.0, -0.54, -0.55, -0.63, -1.27, -1.6, -1.84, -1.8, -1.76, -1.6, -0.89, -0.89, -0.83, -0.89, -0.79, 0.0, 0.0, 0.0, 0.0, 0.0, -0.77, -0.78, -0.8, 0.0, 0.0, 2.13, 4.5, 5.86, 5.77, 5.2, 4.92, 4.75, 3.96, 3.96, 3.96, 3.96, -2.37, -2.37, -2.21, -1.69, -1.69, -1.69, -1.69, -1.69, -1.69, -1.69, -1.69, -1.69, -1.69, -1.71, -1.71, -1.71, -1.71, -1.71, -1.71, -1.71, -1.71, -2.23, -2.23, -2.23, -2.89, -2.89, -2.92, -2.96, -2.32, -2.16, -2.16, -2.36, -3.08, -3.22, -3.49, -3.49, -3.49, -3.84, -4.75, -5.08, -5.1, -3.83, -2.29, -1.16, -0.61, -1.07, -1.16, -0.58, -0.58, 0.0, 0.0, 0.0, 0.0, 0.0, 0.0, 0.0, 0.0, 0.0, 0.0, 0.0, 0.0, 0.0, 0.0, -0.54, -0.61, -1.08, -1.11, -1.8, -1.8, -1.8, -1.76, -1.6, -0.82, -1.18, 0.0, 0.0, 0.0, 0.0, 0.0, -0.8, 0.0, -0.82, -0.77, -0.82, 0.0, 0.81, 2.44, 3.17, 3.61, 3.46, 4.23, 4.15, 3.68, 3.6, 2.76, 2.87, 2.87, 2.87, -2.37, -2.37, -2.21, -1.69, -1.69, -1.69, -1.69, -1.69, -1.69, -1.69, -1.69, -1.69, -1.71, -1.71, -1.71, -1.71, -1.71, -1.71, -1.71, -1.71, -2.23, -2.23, -2.23, -2.23, -2.89, -2.89, -3.4, -2.77, -2.32, -2.36, -2.36, -2.82, -2.82, -3.22, -3.49, -4.11, -3.83, -3.84, -4.75, -5.08, -4.46, -3.83, -2.29, -1.16, -1.19, -1.19, -1.16, -1.05, -0.58, 0.0, 0.0, 0.0, 0.0, 0.0, 0.0, 0.0, 0.0, 0.0, 0.0, 0.0, 0.0, 0.0, -0.59, -0.59, -0.54, -1.19, -1.23, -1.58, -1.8, -2.23, -2.48, -1.73, -1.19, -1.18, -0.89, -0.83, -0.89, -0.84, -0.84, -0.89, -1.67, -1.62, -1.58, -1.62, 0.0, 2.41, 3.95, 4.85, 3.82, 3.16, 3.29, 3.07, 2.88, 2.93, 2.1, 2.45, 2.45, 2.45, -2.37, -2.37, -2.21, -1.69, -1.69, -1.69, -1.69, -1.69, -1.69, -1.69, -1.69, -1.69, -1.71, -1.71, -1.71, -1.71, -1.71, -1.71, -1.71, -1.71, -2.23, -2.23, -2.23, -2.23, -2.89, -2.89, -3.4, -2.77, -2.32, -2.36, -2.36, -2.82, -2.82, -3.22, -3.49, -4.11, -3.83, -3.84, -4.75, -5.08, -4.46, -3.83, -2.29, -1.16, -1.19, -1.19, -1.16, -1.05, -0.58, 0.0, 0.0, 0.0, 0.0, 0.0, 0.0, 0.0, 0.0, 0.0, 0.0, 0.0, 0.0, 0.0, -0.59, -0.59, -0.54, -1.19, -1.23, -1.58, -1.8, -2.23, -2.48, -1.73, -1.19, -1.18, -0.89, -0.83, -0.79, -0.84, -0.84, -0.89, -1.67, -1.62, -1.58, -1.61, 0.0, 1.59, 4.77, 5.65, 4.91, 3.82, 3.19, 3.19, 2.44, 2.28, 2.28, 1.6, 1.6, 1.6]}]